GEFSMW_850_meantemp_000.txt.gz
Temperature
22 21 21 21 20 20 20 20 20 19 19 19 19 19 18 18 18 18 19 18 18 18 18 18 18 18 18 18 18 18 18 18 18 18 18 18 18 18 18 18 18 18 18
22 21 21 20 20 20 19 19 19 19 19 19 18 18 18 18 18 18 18 18 17 18 18 18 18 17 17 17 17 17 18 18 18 17 17 17 18 18 19 18 18 18 18
20 20 21 21 21 21 20 20 20 20 19 19 18 18 18 18 17 17 17 18 18 18 17 17 17 17 17 17 17 17 17 17 17 17 16 16 16 18 18 18 18 17 18
21 21 22 22 22 21 21 20 20 20 19 19 18 18 17 16 16 16 16 17 17 17 17 17 16 16 16 16 17 17 16 16 16 16 15 15 16 16 16 17 17 17 17
22 22 23 23 22 21 21 20 20 19 19 18 18 17 16 16 16 16 16 16 17 17 17 16 16 16 16 16 16 16 16 16 15 15 15 15 15 15 15 15 16 16 17
22 23 23 22 22 21 20 20 19 19 19 18 17 16 16 16 15 16 16 16 16 16 16 16 16 15 16 16 16 16 15 15 15 15 15 15 15 15 15 14 14 15 16
23 23 22 22 22 21 20 20 19 19 19 18 17 16 16 15 15 16 15 15 15 15 14 15 15 15 15 15 15 15 15 14 14 14 15 14 14 15 15 15 14 15 15
23 23 22 22 21 21 20 20 19 19 18 18 17 17 16 15 15 15 14 14 14 13 13 13 14 15 15 14 15 15 14 14 14 14 14 14 14 14 15 15 15 14 14
22 22 23 22 21 21 20 20 19 19 18 17 16 16 15 15 14 14 13 13 13 13 13 13 13 14 14 14 14 14 13 13 14 14 14 13 14 15 14 14 14 14 14
22 23 22 22 21 21 20 20 19 19 17 16 16 16 15 14 14 13 13 12 12 13 13 12 13 13 14 14 13 13 13 13 13 14 14 13 14 14 13 14 14 14 14
22 22 22 21 21 21 20 20 20 19 17 16 16 15 14 14 13 12 13 12 12 12 12 12 12 13 13 13 13 13 13 13 13 13 13 13 13 13 13 13 13 13 14
22 22 21 21 21 20 20 20 20 18 17 16 15 15 14 14 13 12 12 12 12 12 12 12 12 12 12 13 13 13 12 13 12 13 13 13 13 13 13 13 13 13 13
19 19 20 21 21 20 20 20 19 18 17 16 15 15 14 13 13 13 12 12 12 12 12 11 12 12 11 12 12 12 12 12 13 13 13 13 13 13 13 13 13 13 13
17 17 18 18 19 20 20 19 19 18 17 16 15 15 15 14 13 13 12 12 12 12 12 12 12 12 11 11 11 12 12 12 12 12 13 13 13 13 13 13 13 13 13
15 15 16 17 17 17 18 18 18 18 17 16 16 15 15 14 13 13 13 12 12 12 11 12 12 11 11 10 11 11 11 12 13 13 13 12 12 12 12 12 12 13 13
13 14 15 16 16 16 16 16 17 17 17 17 16 15 14 14 13 13 13 12 12 11 11 12 12 11 11 11 11 11 12 12 13 12 12 12 12 12 11 12 12 12 12
12 12 14 15 15 15 14 15 16 16 17 16 16 16 15 14 13 13 13 12 12 11 11 11 12 11 12 11 12 12 12 12 12 12 12 12 12 12 11 11 11 11 11
12 12 12 13 13 13 13 13 14 15 16 16 16 16 15 14 13 13 13 12 12 11 11 12 12 12 12 12 12 12 12 12 11 11 11 12 12 11 11 11 11 11 11
12 12 12 12 12 12 13 12 12 14 15 15 15 15 15 14 14 13 13 12 11 11 11 12 12 12 12 12 12 12 12 11 11 11 11 12 12 11 11 11 11 11 11
10 10 11 11 11 10 11 11 11 11 12 13 13 13 15 15 14 14 13 12 11 11 12 12 11 12 12 12 12 11 11 11 11 11 11 11 11 11 11 11 11 11 10
10 10 10 10 10 10 10 10 10 10 10 11 12 13 13 14 14 14 13 12 12 11 12 12 12 12 12 11 11 11 11 11 11 11 11 11 11 10 10 10 10 10 10
10 10 10 10 10 10 10 10 9 9 9 9 10 11 11 13 14 14 13 12 12 11 12 12 12 12 12 12 11 11 11 11 11 11 11 11 10 10 9 9 9 9 9
10 10 9 9 9 10 9 9 9 9 9 9 8 9 9 11 13 13 12 12 12 12 11 11 12 12 12 12 12 11 11 12 11 11 11 10 9 9 9 9 9 8 8
9 9 9 9 9 9 9 9 8 8 8 8 8 8 9 9 11 13 12 12 12 12 12 11 12 11 11 12 12 12 12 11 11 11 10 10 9 9 9 9 9 8 8
9 9 9 9 9 9 9 9 8 8 8 8 8 8 8 9 9 11 12 12 12 12 12 12 12 12 11 12 12 12 11 11 11 10 10 10 10 9 9 9 9 9 9
9 9 9 9 9 8 8 8 8 8 8 8 7 7 8 8 9 11 12 12 11 11 12 12 12 12 12 12 11 11 11 11 11 10 10 10 10 10 9 9 9 9 9

GEFSMW_850_meantemp_006.txt.gz
Temperature
22 22 22 22 22 21 21 20 20 20 19 19 19 19 18 18 18 18 17 17 17 17 17 17 17 17 17 17 17 17 17 17 17 17 17 17 17 18 18 18 18 18 18
22 22 22 22 22 22 21 21 21 20 20 19 19 19 18 18 17 17 17 16 16 16 16 16 16 16 17 17 17 17 16 17 17 17 17 16 17 17 18 18 18 18 18
22 22 22 22 22 22 22 22 21 20 20 19 19 19 18 17 17 17 16 16 16 16 16 16 16 16 16 16 17 17 16 16 16 16 16 16 16 17 17 17 17 18 18
22 22 23 23 22 22 22 21 21 20 20 19 19 18 18 17 16 16 15 15 15 15 15 15 16 16 16 16 16 16 16 16 15 16 16 16 15 15 15 16 16 16 17
22 23 23 23 22 22 21 21 20 20 20 19 19 18 18 17 16 15 15 15 15 15 15 15 15 15 15 15 14 14 15 15 15 15 15 15 15 14 14 14 15 15 16
23 23 23 23 22 22 21 21 20 20 20 19 19 18 17 17 16 15 15 15 15 15 14 14 13 13 13 13 13 13 14 14 15 15 15 15 14 14 14 14 14 15 15
23 23 23 23 23 22 21 21 20 20 20 19 19 18 17 16 16 15 15 14 14 14 14 13 13 13 13 13 13 13 14 14 14 14 14 15 15 14 14 14 14 14 14
22 22 22 22 22 22 21 21 21 20 20 19 19 18 16 16 15 15 14 14 14 13 13 13 13 13 13 13 13 14 14 14 14 14 14 14 14 14 13 13 14 14 14
19 20 21 21 21 22 22 21 21 20 20 19 18 17 16 15 15 14 14 14 13 13 13 13 13 13 13 13 14 14 14 14 14 14 14 14 13 13 13 13 13 13 13
18 19 20 20 21 21 21 21 20 20 19 18 18 17 16 15 15 14 14 14 13 13 13 13 13 13 13 13 14 14 14 14 14 13 13 13 13 13 13 13 13 13 13
16 17 18 19 19 19 19 19 19 18 18 17 17 16 16 15 15 15 14 14 13 13 13 13 12 12 12 13 13 13 13 13 13 13 13 13 13 13 13 13 13 13 13
13 14 15 15 16 16 16 17 17 17 17 17 16 16 16 16 15 15 14 14 13 13 13 12 12 12 12 12 12 12 12 12 12 12 12 12 12 13 13 13 13 13 13
12 13 13 13 13 14 14 15 15 16 16 16 16 16 16 15 15 15 14 13 13 13 13 12 12 11 11 11 11 12 12 12 12 12 12 12 12 12 12 13 12 13 13
11 12 12 13 13 13 13 13 13 14 14 15 15 15 15 15 15 15 14 13 13 13 13 12 12 11 11 11 11 11 11 12 12 12 12 12 12 12 12 12 12 13 12
10 10 10 11 12 12 13 13 12 12 13 13 14 14 15 15 15 14 14 13 13 12 12 12 12 11 11 11 11 11 11 11 11 11 11 11 12 12 12 12 13 13 13
9 9 9 10 10 10 11 11 11 11 11 12 12 13 14 14 15 14 14 13 13 12 12 12 12 11 11 11 11 11 11 11 11 11 11 11 12 12 12 12 12 12 13
8 8 9 9 9 9 9 9 10 10 10 11 11 12 12 13 14 14 13 13 13 12 12 12 11 11 11 11 11 11 11 11 11 11 11 11 11 12 12 12 12 12 12
9 9 9 9 9 9 9 9 9 9 10 10 10 11 11 12 12 13 13 13 12 12 12 12 11 11 11 11 11 11 11 11 11 11 11 11 11 11 11 12 12 11 11
10 10 10 10 10 10 9 9 9 9 9 9 10 10 10 11 11 11 11 12 12 12 12 12 11 11 11 11 11 11 11 11 11 11 11 11 11 11 11 11 11 11 11
10 10 10 10 10 10 9 9 9 9 9 9 9 9 9 10 10 10 10 11 11 11 11 11 11 11 12 12 11 11 11 11 11 11 11 11 11 11 11 11 11 11 11
10 10 10 10 10 10 9 9 9 9 9 8 8 8 9 9 9 9 9 10 10 11 11 11 11 11 12 12 11 11 11 11 11 11 11 10 10 10 10 10 10 10 10
9 9 9 9 9 9 9 9 9 9 9 8 8 8 8 8 8 8 8 9 9 10 10 10 11 11 11 11 11 11 11 11 11 11 11 10 10 10 10 9 9 9 9
8 8 8 8 8 8 8 8 8 8 8 8 8 8 8 8 8 8 8 8 8 9 9 10 11 11 11 11 11 11 11 11 11 11 11 10 10 9 9 8 8 8 8
7 7 7 7 7 7 7 7 7 7 7 7 7 7 8 8 8 7 7 7 7 8 9 10 11 11 11 11 11 11 11 11 10 10 10 9 9 9 8 8 8 8 8
7 6 6 6 6 6 6 6 6 6 6 6 6 7 7 7 7 7 7 7 7 7 8 9 11 11 11 11 11 11 11 11 10 10 10 9 9 9 8 8 8 8 7
5 5 5 5 5 5 5 5 5 5 5 5 6 6 7 7 7 6 6 7 6 7 7 8 10 12 12 12 11 11 11 11 11 10 10 9 9 9 9 8 8 8 8

GEFSMW_850_meantemp_012.txt.gz
Temperature
23 22 22 22 21 21 20 20 19 19 19 19 19 19 19 18 18 17 17 16 16 16 16 16 15 15 16 15 15 16 16 16 17 17 17 18 18 18 17 17 18 18 18
23 22 22 22 22 21 21 20 20 20 20 19 19 19 18 18 18 17 17 16 16 16 15 15 15 15 15 15 15 15 15 16 16 16 17 18 19 18 18 18 18 18 18
24 23 23 23 22 21 21 20 20 20 20 20 19 19 18 18 18 17 17 16 16 15 15 15 15 15 15 15 15 15 14 15 15 16 17 18 19 20 19 18 18 18 18
24 24 23 23 22 21 21 20 20 20 20 20 19 19 19 19 18 17 17 16 15 15 15 15 14 15 14 14 14 14 14 13 14 15 16 16 17 18 19 19 18 17 17
23 23 22 22 21 21 20 20 20 20 20 20 20 20 19 18 18 17 16 16 15 15 14 14 14 14 14 14 14 14 14 14 14 14 15 15 15 15 16 18 19 18 17
21 21 20 20 20 19 19 19 20 20 20 20 20 19 19 18 18 17 16 16 15 14 14 14 14 14 13 13 13 14 14 14 14 14 14 15 15 16 16 17 17 18 17
17 17 18 18 18 18 18 19 19 19 19 19 19 19 19 18 18 17 16 15 15 15 14 14 14 14 14 14 13 13 14 14 14 14 14 14 14 15 15 16 17 17 16
15 14 14 15 15 15 16 16 17 17 18 18 18 18 18 17 17 16 16 15 15 15 15 14 14 14 13 13 13 13 13 13 14 14 14 14 14 14 15 15 15 15 15
14 14 14 14 13 13 14 14 14 15 15 16 16 17 17 17 16 16 16 15 15 14 14 14 14 13 13 13 13 13 13 14 14 14 14 14 14 14 14 14 15 15 15
14 13 13 13 13 13 12 12 13 13 14 14 15 15 16 16 16 15 15 15 15 14 14 14 14 13 13 13 13 13 13 13 14 13 13 14 14 14 14 14 14 15 15
13 13 12 12 12 12 12 11 12 12 12 13 13 14 14 14 15 15 15 14 14 14 14 14 13 13 13 13 13 13 13 13 13 13 13 13 13 14 14 14 14 14 14
13 13 12 12 11 11 11 11 11 11 11 11 12 12 12 13 13 14 14 14 14 14 13 13 13 12 12 12 13 13 12 12 12 13 13 13 13 13 14 14 14 14 14
12 12 12 11 11 10 10 10 10 10 10 10 10 11 11 11 12 12 13 13 13 14 13 13 13 12 12 12 12 12 12 12 12 12 12 12 13 13 13 13 13 13 13
11 10 10 10 10 9 9 9 9 9 9 9 10 10 10 10 11 11 12 12 13 13 13 13 12 12 12 12 12 12 12 12 12 12 12 12 12 12 12 13 13 13 12
10 9 9 9 9 9 9 9 9 8 8 8 8 8 8 9 10 10 11 11 12 12 12 12 12 12 12 12 12 12 12 12 12 12 12 12 12 12 12 12 12 12 11
11 11 10 10 10 10 9 9 9 8 8 8 8 8 8 8 8 9 10 10 11 12 12 12 12 12 12 12 12 12 11 11 11 12 12 12 12 12 12 12 11 11 11
12 12 11 11 11 10 10 10 9 9 8 8 8 8 8 8 8 9 9 9 10 11 11 11 12 12 12 12 12 12 11 11 11 11 11 12 12 12 12 11 11 11 11
12 11 11 11 11 10 10 10 10 9 9 9 9 9 9 9 9 9 9 9 9 10 10 11 11 11 11 12 12 12 11 11 11 11 11 11 11 11 11 11 11 11 11
11 10 10 10 10 10 9 9 9 9 9 9 9 9 9 9 9 9 9 9 9 9 10 10 10 11 11 11 12 12 11 11 11 11 11 11 11 11 11 11 11 11 11
10 9 9 9 9 9 9 9 9 9 9 9 9 9 9 9 8 8 8 8 8 8 9 9 10 10 10 11 11 11 11 11 11 11 11 11 11 11 11 11 11 11 11
9 9 9 8 8 8 8 8 8 8 8 8 8 8 8 8 8 8 8 8 8 8 8 8 9 9 9 10 11 11 11 12 11 11 11 11 11 11 11 11 11 11 11
9 8 8 8 7 7 7 7 7 7 7 7 7 7 7 7 8 8 8 7 8 8 8 8 8 9 9 9 10 11 11 11 11 12 11 11 11 11 11 11 11 11 10
8 8 7 7 6 6 6 6 6 6 6 6 6 6 6 6 7 7 7 7 7 8 9 9 8 8 8 8 10 10 11 11 11 11 11 11 10 10 10 10 10 10 10
8 7 7 6 6 5 5 5 5 5 5 5 5 5 5 6 6 6 7 8 8 8 9 9 8 8 8 8 9 10 10 10 10 11 11 10 10 10 9 9 9 9 10
7 7 6 5 5 5 5 5 5 5 5 5 5 5 5 5 5 6 6 7 8 8 8 8 7 7 8 8 9 9 9 9 10 10 10 9 9 9 9 9 9 9 9
7 6 5 4 4 4 4 4 4 4 4 4 4 4 4 4 5 5 6 7 7 7 7 7 7 7 7 8 8 9 9 10 10 10 10 10 10 10 10 9 9 9 9

GEFSMW_850_meantemp_018.txt.gz
Temperature
28 26 25 24 23 22 22 22 21 21 20 20 20 20 20 20 20 20 19 19 18 17 17 17 16 16 16 16 16 16 16 16 16 16 17 17 18 18 19 19 19 19 19
25 23 22 21 21 21 21 21 21 21 21 21 21 21 21 20 20 20 19 19 18 17 17 16 16 16 16 16 15 15 15 15 15 15 16 16 17 18 19 19 19 19 19
19 18 18 18 18 18 19 20 20 20 20 20 20 20 20 20 20 20 19 19 18 17 17 16 16 15 16 15 15 15 15 15 15 15 15 16 17 18 18 19 19 19 19
16 16 16 16 17 18 19 20 20 20 20 20 20 20 20 20 20 20 19 19 18 18 17 16 16 16 16 15 15 15 15 15 15 15 15 15 15 15 16 17 18 19 19
16 15 15 15 16 17 18 19 19 19 19 19 19 19 19 19 20 20 19 19 18 18 17 16 16 16 16 15 15 16 15 15 15 15 15 15 15 15 15 15 17 18 18
16 15 15 15 15 16 17 18 18 18 18 18 18 18 18 18 18 19 19 18 18 18 17 17 16 16 16 16 16 16 15 15 15 15 14 14 14 15 15 15 16 16 17
16 15 15 14 15 15 15 15 16 16 16 16 16 16 16 16 17 17 18 18 17 17 17 17 16 16 16 16 15 15 15 15 15 15 14 14 14 14 14 14 15 16 17
16 16 15 15 14 14 14 14 14 14 15 15 15 15 15 15 15 16 16 17 17 17 17 17 16 16 16 15 15 15 15 14 14 15 14 14 14 14 14 14 14 15 16
17 16 16 15 14 14 14 14 14 14 14 14 15 14 14 14 14 15 15 15 16 16 16 16 15 15 15 15 15 15 14 14 14 14 14 14 14 14 14 14 14 14 14
17 16 16 15 15 14 14 13 13 13 13 13 14 14 14 14 14 14 14 14 15 15 15 15 15 14 14 14 14 14 14 14 14 14 14 14 14 14 14 14 14 14 14
16 15 15 15 14 14 14 13 13 12 12 12 12 12 13 13 14 14 14 14 14 14 14 14 14 14 14 14 14 14 14 14 14 14 14 14 14 14 14 14 14 14 14
15 15 15 14 13 13 13 12 12 12 11 11 11 11 11 11 11 12 12 13 13 13 14 14 13 14 14 14 14 14 14 14 14 14 14 14 14 14 14 14 14 14 14
15 15 14 14 13 12 12 12 12 11 11 11 11 11 10 10 10 10 10 11 11 12 13 13 13 13 13 13 13 13 13 13 13 13 13 13 13 14 14 14 14 14 14
15 15 14 14 13 13 12 12 12 11 11 11 10 10 10 10 10 10 9 10 10 10 11 11 12 12 13 13 13 13 13 13 13 13 13 13 13 13 13 13 14 14 14
16 15 14 14 13 13 12 12 12 12 11 11 11 10 10 10 10 9 9 9 9 9 9 10 10 11 11 12 12 13 13 13 13 13 13 13 13 13 13 13 13 13 13
15 14 13 13 13 12 12 12 11 11 11 11 11 10 10 10 10 10 9 9 9 9 9 9 10 10 10 11 11 12 12 13 13 12 12 12 13 13 12 12 13 13 13
14 13 13 12 12 11 11 11 11 11 10 10 10 10 10 10 10 10 10 10 9 9 9 9 9 10 10 10 11 11 12 12 12 12 12 12 12 12 12 12 12 12 12
13 12 12 12 11 11 11 11 10 10 10 9 9 9 9 9 9 10 10 10 9 9 9 9 9 9 9 10 10 11 11 11 12 12 12 12 12 12 11 11 11 11 11
12 12 12 11 11 11 10 10 10 9 9 9 9 8 8 9 9 9 9 9 9 9 9 9 9 9 9 9 10 10 10 11 11 11 12 12 12 12 11 11 11 11 11
12 12 11 11 11 11 10 10 9 9 8 8 8 8 8 8 8 8 8 8 9 9 9 9 9 9 9 9 9 9 10 10 11 11 11 12 12 11 11 11 11 11 11
12 12 11 11 11 10 10 9 9 8 8 7 7 7 7 7 7 7 8 8 8 8 8 8 9 9 9 9 9 9 9 10 10 11 11 11 11 11 11 11 11 11 11
12 11 11 11 10 10 10 9 8 7 7 6 6 6 6 6 6 7 7 7 7 7 8 8 8 8 9 9 9 9 9 9 9 10 11 11 11 11 11 11 11 11 11
11 11 11 10 10 9 8 7 7 6 5 5 5 5 5 5 6 6 6 6 7 7 7 8 8 8 9 9 9 9 9 9 9 9 10 11 11 11 11 11 11 11 11
11 10 9 8 8 7 6 5 5 4 4 4 4 4 4 5 5 6 6 6 6 7 7 7 8 8 8 8 9 9 9 9 9 9 10 11 11 11 11 11 11 11 11
9 8 7 6 5 4 4 4 4 3 3 4 4 4 4 5 5 5 6 6 6 6 7 7 7 8 8 8 8 8 8 8 8 8 9 10 10 10 10 11 11 11 11
7 5 5 4 3 3 3 3 3 3 3 3 4 4 4 5 5 5 5 6 6 6 6 7 7 7 8 8 8 8 8 8 8 8 9 10 10 10 10 10 10 11 11

GEFSMW_850_meantemp_024.txt.gz
Temperature
16 17 18 18 19 19 19 19 18 17 17 17 17 18 18 19 19 19 19 19 19 19 18 18 17 17 17 16 16 16 16 16 16 16 16 17 17 17 17 17 17 17 17
14 15 16 17 18 18 18 18 17 17 17 17 17 18 18 19 19 19 19 19 19 19 18 18 18 17 17 17 16 16 16 16 16 15 15 16 17 17 17 17 17 17 17
14 15 16 17 17 17 17 16 16 17 17 17 17 18 19 19 19 19 19 19 19 19 18 18 18 18 17 17 17 16 16 16 15 15 15 14 14 15 17 17 17 17 17
14 15 15 16 15 15 15 16 16 16 17 17 18 18 18 19 19 18 18 18 18 18 18 18 18 18 18 17 17 16 16 16 15 15 15 14 14 14 14 16 17 16 17
14 15 15 15 15 15 15 15 15 16 16 16 17 17 18 18 18 18 18 18 18 18 18 18 18 18 18 17 17 17 16 16 15 15 15 14 14 14 14 14 16 17 17
15 15 15 15 15 15 15 15 15 15 15 15 16 16 16 16 17 17 17 17 17 17 17 17 17 17 17 17 17 17 16 16 16 15 15 14 14 14 13 13 14 15 17
15 15 15 15 15 15 15 15 15 15 15 15 15 15 15 15 15 15 15 16 16 16 16 16 16 17 17 17 17 17 16 16 16 15 15 14 14 14 14 13 14 14 15
15 15 15 15 15 15 15 15 14 14 14 14 14 14 14 14 14 14 14 14 14 14 15 15 16 16 16 16 16 16 16 16 16 15 15 15 14 14 14 13 13 13 14
15 15 15 15 15 15 14 14 14 14 13 13 13 13 13 13 13 12 12 13 13 13 13 14 14 15 15 15 15 16 16 15 15 15 15 15 14 14 14 14 13 13 13
16 15 15 15 15 14 14 14 13 13 13 13 13 12 12 12 12 12 11 11 11 12 12 12 13 13 14 14 14 15 15 15 15 15 15 14 14 14 14 14 14 13 13
16 15 15 15 14 14 13 13 13 13 13 12 12 12 12 12 11 11 11 11 11 11 11 11 11 12 12 13 13 14 14 14 14 14 14 14 14 14 14 14 14 13 13
15 15 14 14 13 13 13 13 12 12 12 12 12 12 11 11 11 11 10 10 10 10 10 10 10 11 11 12 12 12 13 13 14 14 14 14 14 14 14 14 14 14 13
14 14 13 13 13 13 12 12 12 12 11 11 11 11 11 11 11 10 10 10 10 10 10 10 10 10 10 11 11 11 12 13 13 13 13 13 13 14 14 14 14 14 14
13 13 13 13 13 12 12 12 12 11 11 11 11 11 10 10 10 10 10 10 10 10 10 9 9 9 10 10 10 10 11 12 12 13 13 13 13 13 13 14 14 14 13
13 13 13 12 12 12 12 12 11 11 11 11 11 10 10 10 10 10 9 9 9 9 9 9 9 9 9 9 9 10 10 11 11 12 12 13 13 13 13 13 14 14 13
13 13 13 12 12 12 12 12 11 11 11 11 10 10 10 10 10 9 9 9 9 9 9 9 9 9 9 9 9 9 9 10 10 11 12 12 13 13 13 13 14 13 13
13 12 12 12 12 12 11 11 11 11 11 10 10 10 10 10 9 9 9 9 8 8 9 9 9 9 9 9 9 9 9 9 10 10 11 12 12 13 13 13 13 13 13
12 12 11 11 11 11 10 10 10 10 10 10 10 10 9 9 9 9 8 8 8 8 8 8 8 9 9 9 9 9 9 9 9 10 10 11 12 12 12 13 13 13 13
11 11 10 10 9 9 9 8 8 8 8 8 8 8 8 8 8 8 8 8 8 7 7 8 8 8 8 9 9 9 9 9 9 9 10 10 11 11 12 12 12 12 12
10 9 9 8 8 7 7 6 6 6 6 6 6 6 7 7 7 7 7 7 7 7 7 7 7 8 8 8 8 8 9 9 9 9 9 10 10 11 11 12 12 12 11
9 8 7 6 6 6 5 5 5 5 5 5 5 5 5 5 5 6 6 6 6 6 6 6 7 7 8 8 8 8 8 8 9 9 9 9 10 10 11 11 12 12 11
7 7 6 5 5 5 4 4 4 4 4 4 4 4 4 4 4 5 5 5 5 5 6 6 6 7 7 8 8 8 8 8 8 8 9 9 9 10 10 11 11 11 11
6 6 5 5 5 4 4 4 4 4 4 4 4 4 4 4 4 4 4 4 5 5 5 6 6 7 7 7 8 8 8 8 8 8 8 8 9 9 10 10 11 11 11
6 5 5 4 4 4 4 4 4 4 4 4 4 4 4 4 4 4 4 4 4 5 5 5 6 6 7 7 8 8 8 8 8 8 8 8 8 9 9 10 10 11 11
5 5 4 4 4 5 5 5 5 4 4 4 4 4 4 4 4 4 4 4 4 5 5 5 6 6 7 7 7 8 8 8 8 8 8 8 8 8 9 9 10 10 10
5 5 5 5 5 5 5 5 5 5 4 4 4 4 4 4 4 4 4 4 4 5 5 5 5 6 6 7 7 7 8 8 8 7 7 7 8 8 9 9 10 10 10

GEFSMW_850_meantemp_030.txt.gz
Temperature
14 15 16 16 16 16 16 16 16 16 16 16 16 15 15 16 16 16 16 17 17 17 17 17 17 17 17 16 16 16 16 16 16 16 16 16 16 16 16 17 17 17 17
15 15 16 16 16 16 16 16 16 16 16 16 16 15 15 15 16 16 16 16 17 17 17 17 17 17 17 17 16 16 16 16 15 15 16 16 16 16 16 16 16 16 16
15 15 16 16 16 16 16 16 16 16 16 16 16 16 16 16 16 16 16 17 17 17 17 17 17 17 17 17 17 16 16 15 15 15 15 16 16 16 16 16 16 16 16
15 15 16 16 16 16 16 16 16 16 16 16 16 16 16 16 16 16 16 16 17 17 17 17 17 17 17 17 17 16 16 16 15 15 15 15 15 15 15 15 15 15 15
15 15 15 15 16 16 16 16 16 16 15 15 15 15 15 15 15 15 15 16 16 16 16 17 17 16 16 16 16 16 16 16 16 15 15 15 15 15 14 15 15 16 16
15 15 15 15 16 16 16 16 16 15 15 15 14 14 14 14 14 14 14 15 15 15 15 15 16 16 16 16 16 16 16 16 16 16 15 15 15 15 14 14 14 15 16
15 15 15 15 15 15 15 15 15 15 14 14 14 13 13 13 13 13 13 13 14 14 14 14 14 14 15 15 15 15 16 16 16 16 16 15 15 14 14 14 13 13 15
15 15 15 15 15 15 14 14 14 14 14 13 13 13 13 13 13 12 12 12 12 12 13 13 13 13 13 14 14 15 15 15 15 16 15 15 15 14 14 14 13 13 13
15 15 15 14 14 14 14 13 13 13 13 13 13 13 12 12 12 12 12 12 12 11 12 12 12 12 12 12 13 13 14 14 14 15 15 15 15 15 14 14 13 13 12
15 14 14 14 13 13 13 13 13 13 13 13 12 12 12 12 12 11 11 11 11 11 11 11 11 11 11 12 12 12 13 13 13 14 14 14 15 14 14 14 14 13 13
14 14 13 13 13 12 12 12 12 12 12 12 12 12 12 12 11 11 11 11 11 10 10 10 10 10 11 11 11 11 12 12 13 13 13 14 14 14 14 14 14 13 13
13 13 13 12 12 12 12 12 12 12 12 11 11 11 11 11 11 11 11 10 10 10 10 10 10 10 10 10 10 11 11 11 12 12 12 13 13 13 14 14 13 13 13
13 12 12 12 11 11 11 11 11 11 11 11 11 11 11 11 11 11 11 10 10 10 10 10 9 9 9 9 9 9 10 10 11 11 11 12 12 12 13 13 13 13 13
12 11 11 11 10 10 10 10 9 9 9 10 10 10 10 10 10 10 10 10 10 10 10 10 9 9 9 9 9 9 9 9 10 10 10 11 11 12 12 13 13 13 13
11 10 10 9 9 9 8 8 8 8 8 8 8 8 9 9 10 10 10 10 10 10 10 9 9 9 9 9 9 9 9 9 9 9 10 10 11 11 12 12 13 13 13
10 9 9 8 8 7 7 6 6 6 6 6 6 7 7 8 8 9 9 9 9 9 9 9 9 9 9 9 9 9 9 8 9 9 9 10 10 10 11 12 12 13 13
9 8 8 7 7 6 6 5 5 5 5 5 5 5 6 6 7 7 8 8 8 9 9 9 9 9 8 8 8 8 8 8 8 9 9 9 10 10 11 11 12 12 12
8 8 7 6 6 6 5 5 5 5 5 5 5 5 5 5 5 5 6 6 7 7 8 8 8 8 8 8 8 8 8 8 8 9 9 9 9 10 10 11 11 12 12
8 7 7 6 6 5 5 5 5 5 4 4 4 4 4 4 4 5 5 5 6 6 7 7 7 7 8 8 8 8 8 8 8 8 8 9 9 9 10 10 11 11 12
7 7 6 6 6 5 5 5 5 4 4 4 4 4 4 4 4 4 4 4 5 5 6 6 6 7 7 7 7 7 8 8 8 8 8 8 9 9 9 10 10 11 12
7 6 6 6 6 5 5 5 5 5 4 4 4 4 4 4 4 4 4 4 4 5 5 5 6 6 6 7 7 7 7 8 8 8 8 8 8 9 9 9 10 11 11
7 6 6 6 6 6 5 5 5 5 5 4 4 4 4 4 4 4 4 4 4 4 4 5 5 6 6 6 7 7 7 7 8 8 8 8 8 8 9 9 10 10 10
7 6 6 6 6 6 5 5 5 5 5 5 5 4 4 4 4 4 4 4 4 4 4 4 5 5 6 6 6 7 7 7 7 8 8 8 8 8 8 9 9 9 10
7 6 6 6 6 6 6 6 6 5 5 5 5 5 4 4 4 4 4 4 4 4 4 4 4 5 5 6 6 6 7 7 7 7 7 7 8 8 8 9 9 9 10
7 6 6 6 6 6 6 6 6 5 5 5 5 5 5 4 4 4 4 4 4 4 4 4 4 4 5 6 6 6 7 7 7 7 7 7 7 8 8 8 8 9 9
7 7 7 7 7 6 6 6 6 6 5 5 5 5 5 5 4 4 4 4 4 4 4 4 4 5 5 5 6 6 7 7 7 7 7 7 7 7 7 8 8 8 9

GEFSMW_850_meantemp_036.txt.gz
Temperature
16 16 16 16 16 16 16 16 16 16 17 16 16 15 15 15 15 15 15 15 15 15 15 15 15 16 16 16 16 16 16 16 16 16 17 17 17 17 17 17 17 17 17
17 16 16 16 16 16 16 16 16 16 16 16 15 15 15 15 15 15 15 15 15 15 15 15 15 15 16 16 16 16 16 17 16 16 17 18 18 17 17 17 16 17 17
17 17 16 16 16 16 16 16 16 16 15 15 15 15 15 15 14 14 14 14 15 15 15 15 15 15 15 16 16 15 15 16 16 16 17 18 20 20 18 17 16 16 16
17 17 17 16 16 16 16 15 15 15 15 15 14 14 14 14 14 14 13 14 14 14 15 15 15 15 15 15 15 15 15 15 16 16 16 16 17 18 19 17 17 16 16
18 17 17 16 16 16 15 15 14 14 14 14 14 13 14 14 14 13 13 13 13 13 14 14 14 14 14 14 15 15 15 15 15 16 16 16 15 16 17 19 18 17 16
18 17 17 16 16 15 15 14 14 13 13 13 13 13 13 13 13 13 13 13 13 13 13 13 13 14 14 14 14 14 14 15 15 15 16 16 16 16 17 18 17 18 17
18 17 17 16 15 15 14 14 13 13 12 12 12 12 12 12 12 12 13 12 13 13 12 12 12 12 13 13 13 14 14 14 14 15 15 16 16 17 17 17 18 17 17
18 17 17 16 15 15 14 13 13 12 12 12 12 11 11 12 12 12 12 12 12 12 12 11 11 12 12 12 12 13 13 13 14 14 14 15 15 16 16 16 17 17 17
17 17 16 15 15 14 13 13 12 12 11 11 11 11 11 11 11 11 11 11 11 11 11 11 11 11 11 11 11 12 12 13 13 13 14 14 15 15 15 16 16 17 18
17 17 16 15 14 13 13 12 12 11 11 10 10 11 10 10 10 10 10 10 10 10 10 10 10 10 10 10 11 11 11 11 12 13 13 13 14 14 15 15 15 16 17
16 16 15 14 13 13 12 12 11 11 10 10 9 9 9 9 9 9 9 9 9 10 10 10 10 10 10 10 10 10 10 11 11 11 12 12 13 14 14 14 15 15 15
15 15 14 13 13 12 11 11 10 10 10 9 8 8 8 8 8 9 9 8 8 9 9 10 10 10 10 10 10 10 10 10 10 10 11 12 12 13 13 14 14 14 15
15 14 13 12 12 11 10 10 9 9 9 8 8 8 7 7 7 7 8 8 8 8 8 9 9 10 10 10 10 10 10 10 10 10 10 10 11 12 12 13 13 14 14
14 13 12 11 11 10 9 9 9 8 8 8 7 7 7 7 7 7 7 7 7 7 7 8 9 9 9 10 10 10 9 9 9 9 9 10 10 11 11 12 12 13 13
13 12 12 11 10 10 9 9 8 8 7 7 7 7 7 6 6 6 6 6 6 7 7 7 8 9 9 9 10 9 9 9 9 9 9 9 10 10 10 11 11 12 12
13 12 11 10 10 9 9 8 8 7 7 7 7 6 6 6 6 6 6 6 6 6 6 7 7 8 9 9 9 9 9 9 9 9 9 9 9 10 10 10 10 11 11
12 11 11 10 9 9 8 8 7 7 7 6 6 6 6 6 6 6 5 5 5 5 6 6 6 7 8 8 9 9 9 9 9 9 9 9 10 9 9 10 10 10 11
11 11 10 10 9 9 8 7 7 7 7 6 6 6 6 5 5 5 5 5 5 5 5 5 6 6 7 7 8 8 8 8 9 9 9 9 9 9 9 9 9 10 10
11 10 10 9 9 8 8 7 7 7 6 6 6 6 5 5 5 5 5 5 5 5 5 5 5 5 6 7 7 8 8 8 8 8 9 9 9 9 9 9 9 9 10
10 9 9 9 9 8 7 7 7 6 6 6 6 6 5 5 5 5 5 5 5 5 5 5 5 5 6 6 7 7 7 8 8 8 8 8 9 9 9 9 9 9 9
10 9 9 9 8 8 7 7 6 6 6 6 6 5 5 5 5 5 5 5 5 5 5 5 5 5 5 6 6 7 7 8 8 9 9 9 9 9 9 9 9 9 9
10 9 9 9 8 7 7 7 6 6 6 6 6 6 6 6 5 5 5 5 5 5 5 5 5 5 5 6 6 6 7 7 7 8 9 9 9 9 9 9 9 9 9
9 9 9 8 8 7 7 6 6 6 6 6 6 6 6 6 5 5 5 5 5 5 5 5 5 5 5 6 6 6 6 7 7 7 8 8 8 8 8 9 9 9 9
9 9 8 8 8 7 7 6 6 6 6 6 6 6 6 6 6 6 5 5 5 5 5 5 5 5 5 5 6 6 6 7 7 7 7 7 8 8 8 8 8 9 9
9 8 8 8 7 7 7 6 6 6 6 6 6 6 6 6 6 6 6 5 5 5 5 5 5 5 5 5 6 6 6 7 7 7 7 7 8 8 8 8 9 9 9
8 8 8 7 7 7 7 6 6 6 6 6 6 7 7 6 6 6 6 6 5 5 5 5 5 5 5 5 5 6 6 6 7 7 7 8 8 8 9 9 9 9 9

GEFSMW_850_meantemp_042.txt.gz
Temperature
19 18 18 18 18 17 17 17 17 16 16 16 16 16 16 16 16 16 16 15 15 15 15 15 15 15 15 15 15 15 15 15 15 16 16 17 17 18 18 18 18 18 18
19 19 19 19 18 17 17 17 16 16 16 15 15 15 15 15 16 16 15 15 14 14 14 14 14 14 15 15 15 15 15 15 15 15 16 16 17 17 18 18 18 18 18
21 20 19 19 19 18 17 17 16 16 15 15 15 15 15 15 15 15 15 15 14 14 14 14 14 14 14 14 14 14 15 15 15 15 16 16 17 18 18 18 18 18 18
21 20 20 19 19 18 18 17 16 16 15 14 14 14 14 14 14 14 14 14 14 14 14 14 14 14 14 14 14 14 14 15 15 15 16 16 17 17 18 18 18 18 18
21 21 20 19 19 18 18 17 16 15 15 14 13 13 13 13 13 13 13 13 13 14 14 14 14 13 13 13 14 14 14 14 15 15 15 16 16 17 17 18 18 18 18
22 21 20 20 19 18 17 17 16 15 14 14 13 12 12 12 12 12 12 13 13 13 14 14 13 13 13 13 13 13 14 14 14 15 15 15 15 16 17 17 18 18 18
22 21 20 20 19 18 17 16 16 15 14 13 13 12 12 11 11 12 12 12 12 13 13 13 13 12 12 12 12 12 13 13 14 14 15 15 15 15 16 17 18 18 18
22 21 20 19 19 18 17 16 15 14 13 13 12 12 11 11 11 11 11 11 11 11 12 12 12 12 12 12 12 12 12 12 13 13 14 14 15 15 16 16 17 18 18
22 21 20 19 18 17 16 15 14 14 13 12 12 11 11 11 10 10 10 10 10 11 11 11 11 11 11 11 11 11 11 12 12 12 13 13 14 15 15 16 16 17 18
21 20 19 18 17 16 15 15 14 13 12 12 11 11 11 10 10 9 9 9 10 10 10 10 10 10 11 11 11 11 11 11 11 12 12 13 13 14 15 15 16 17 17
20 19 18 17 16 15 15 14 13 12 12 11 11 10 10 10 9 9 9 9 9 9 9 9 9 10 10 10 10 11 11 11 11 11 11 12 12 13 14 14 15 16 16
19 18 17 16 15 15 14 13 12 12 11 11 10 10 10 9 9 9 9 9 9 8 8 8 9 9 9 9 10 10 11 11 11 11 11 11 11 12 13 13 14 15 16
19 18 17 16 15 14 13 12 12 12 11 11 10 10 9 9 9 9 8 8 8 8 8 8 8 8 8 9 9 10 10 10 11 11 11 11 11 11 12 12 13 14 15
18 17 16 15 14 13 13 12 12 11 11 10 10 9 9 9 8 8 8 8 8 8 8 8 8 8 8 8 9 9 10 10 10 10 10 10 11 11 11 11 12 13 14
18 17 15 15 14 13 12 12 11 11 10 10 9 9 9 8 8 8 8 8 8 8 8 7 7 7 7 8 8 9 9 9 10 10 10 10 10 10 11 11 11 12 13
17 16 15 14 13 13 12 12 11 11 10 10 9 9 8 8 8 8 8 8 7 7 7 7 7 7 7 8 8 8 8 9 9 10 10 10 10 10 10 10 10 11 12
17 16 15 14 13 13 12 12 11 10 10 9 9 9 8 8 8 8 8 7 7 7 7 7 7 7 7 7 7 8 8 8 9 9 9 9 10 10 10 10 10 10 11
16 15 14 13 13 12 12 11 11 10 10 9 9 8 8 8 8 7 7 7 7 7 7 7 7 7 7 7 7 7 7 8 8 9 9 9 10 10 10 10 10 10 11
15 14 13 13 12 12 11 11 10 10 9 9 8 8 8 7 7 7 7 7 7 7 7 7 7 7 7 7 7 7 7 7 8 8 9 9 9 9 10 9 9 10 10
15 14 13 13 12 12 11 10 10 9 9 8 8 8 8 7 7 7 7 7 7 7 7 7 7 7 7 7 6 6 6 7 7 8 8 9 9 9 9 9 9 9 9
14 14 13 12 12 11 10 10 9 9 8 8 8 8 8 8 8 8 8 8 7 7 7 7 7 7 7 6 6 6 6 6 7 7 8 8 9 9 9 9 9 9 9
14 13 13 12 11 11 10 9 9 8 8 8 8 8 8 8 8 8 8 8 8 7 7 7 7 7 7 6 6 6 6 6 7 7 8 8 8 9 9 9 9 9 9
14 13 12 12 11 11 10 9 9 8 8 8 8 8 8 8 8 8 8 8 8 7 7 7 7 7 6 6 6 6 6 6 7 7 7 8 8 9 9 9 9 9 9
13 13 12 11 11 10 10 9 8 8 8 7 7 7 8 8 8 8 8 8 8 7 7 6 6 6 6 6 6 6 6 7 7 7 7 7 8 8 8 9 9 9 9
13 12 12 11 11 10 9 9 8 8 8 7 7 7 8 8 8 8 8 8 8 7 7 6 6 6 6 6 6 6 6 6 7 7 7 7 8 8 8 8 9 9 9
13 12 11 11 10 9 9 8 8 8 7 7 7 7 8 8 8 8 8 8 8 8 7 7 6 6 6 6 6 6 6 6 7 7 7 7 8 8 8 8 9 9 9

GEFSMW_850_meantemp_048.txt.gz
Temperature
18 18 18 18 18 18 18 18 18 17 17 17 16 16 16 15 15 15 14 14 14 14 14 14 14 14 14 14 14 14 14 14 14 14 14 15 15 15 15 16 16 16 17
18 18 18 18 18 18 18 17 17 17 16 16 16 15 15 14 14 14 14 13 13 13 13 13 13 14 14 14 14 14 14 14 14 14 14 14 15 15 15 16 16 17 17
19 19 19 18 18 18 18 17 17 16 16 15 15 15 14 14 14 14 13 13 13 13 13 13 13 13 13 13 13 13 13 13 13 13 13 14 14 15 15 16 16 16 17
19 19 19 19 19 18 18 17 17 16 15 15 14 14 14 13 13 12 12 12 12 13 13 13 13 13 13 13 13 13 13 13 13 13 13 13 14 14 15 16 16 16 16
20 20 19 19 19 18 18 17 16 16 15 14 14 14 13 12 12 12 12 12 12 12 12 12 12 12 12 12 12 12 13 13 13 13 13 13 13 14 14 15 16 16 16
20 20 19 19 18 18 17 17 16 15 15 14 13 13 12 12 12 11 11 11 11 12 12 12 12 12 12 12 12 12 12 12 12 12 13 13 13 13 14 14 15 16 16
20 20 19 19 18 18 17 16 16 15 14 13 13 12 12 11 11 11 11 11 11 11 11 11 11 11 11 11 11 11 11 12 12 12 12 12 13 13 13 13 14 15 16
20 20 19 18 18 17 17 16 15 14 14 13 12 12 12 11 11 11 10 10 10 10 10 10 10 11 11 11 11 11 11 11 11 12 12 12 12 12 13 13 13 14 15
19 19 19 18 17 17 16 15 14 14 13 12 12 11 11 11 10 10 10 10 10 10 10 10 10 10 10 10 10 10 10 11 11 11 11 11 12 12 12 13 13 13 14
19 19 18 18 17 16 15 15 14 13 12 12 11 11 11 10 10 10 10 10 9 9 9 9 9 9 10 10 10 10 10 10 10 10 11 11 11 11 12 12 12 13 13
19 19 18 17 16 16 15 14 13 12 12 12 11 11 11 10 10 9 9 9 9 9 9 9 9 9 9 9 9 9 10 10 10 10 10 10 11 11 11 11 12 12 13
19 18 18 17 16 15 14 13 13 12 12 11 11 11 10 10 10 9 9 9 8 8 8 8 8 8 8 9 9 9 9 9 9 10 10 10 10 10 11 11 11 11 12
18 18 17 16 15 14 13 13 12 12 11 11 11 11 10 10 9 9 9 8 8 8 8 8 8 8 8 8 8 8 8 9 9 9 9 10 10 10 10 10 11 11 11
18 17 16 15 14 14 13 12 12 12 11 11 11 10 10 10 9 9 9 8 8 8 8 8 8 8 8 8 8 8 8 8 8 9 9 9 9 10 10 10 10 11 11
17 16 15 15 14 13 13 12 12 11 11 11 10 10 10 9 9 9 8 8 8 8 8 8 8 7 7 7 8 7 7 8 8 8 8 9 9 9 10 10 10 10 10
17 16 15 14 14 13 12 12 12 11 11 10 10 10 9 9 9 8 8 8 8 8 8 8 8 8 7 7 7 7 7 7 7 7 8 8 8 9 9 9 10 10 10
17 16 15 14 13 13 12 12 11 11 11 10 10 9 9 9 8 8 8 8 8 8 8 8 8 8 8 8 7 7 7 7 7 7 7 8 8 8 9 9 9 10 10
16 16 15 14 13 12 12 11 11 11 10 10 10 9 9 9 8 8 8 8 8 8 8 8 8 8 8 8 7 7 7 6 7 7 7 7 8 8 8 9 9 9 10
16 15 14 14 13 12 12 11 11 10 10 10 9 9 9 8 8 8 8 8 8 8 8 8 8 8 8 7 7 7 6 6 6 7 7 7 7 8 8 8 9 9 9
16 15 14 14 13 12 11 11 10 10 10 9 9 9 8 8 8 8 8 8 8 8 8 8 8 8 7 7 7 7 6 6 6 6 6 7 7 7 8 8 8 9 9
16 15 14 13 13 12 11 11 10 10 9 9 9 9 9 8 8 8 8 8 8 8 8 8 8 7 7 7 7 7 6 6 6 6 6 7 7 7 7 8 8 9 9
16 15 14 13 13 12 11 10 10 10 9 9 9 9 9 8 8 8 8 8 8 8 8 8 8 7 7 7 6 6 6 6 6 6 6 6 7 7 7 8 8 8 8
16 15 14 13 12 12 11 10 10 10 9 9 9 9 9 8 8 8 8 8 8 8 8 8 7 7 7 6 6 6 6 6 6 6 6 6 6 7 7 8 8 8 8
16 15 14 13 12 12 11 10 10 9 9 9 9 9 8 8 8 8 8 8 8 8 8 8 7 7 6 6 6 6 6 6 6 6 6 6 6 7 7 8 8 8 8
16 15 14 13 12 12 11 10 10 9 9 9 9 9 8 8 8 8 8 8 8 8 8 7 7 7 7 6 6 6 6 6 6 6 6 6 6 7 7 7 8 8 8
16 15 14 13 12 12 11 10 10 9 9 9 9 8 8 8 8 8 9 9 8 8 8 7 7 7 7 6 6 6 6 6 6 6 6 6 7 7 7 7 8 8 8

GEFSMW_850_meantemp_054.txt.gz
Temperature
18 18 18 18 18 18 18 18 17 17 17 16 16 16 15 15 14 14 14 13 13 13 13 13 13 13 13 13 13 13 13 13 13 14 14 15 15 15 15 15 15 15 15
18 18 18 18 18 18 18 17 17 17 16 16 15 15 14 14 13 13 13 13 12 12 12 12 12 13 13 13 13 13 13 13 13 13 13 14 15 15 15 15 15 15 15
19 18 18 18 18 18 18 17 17 16 16 15 15 14 14 13 13 13 12 12 12 12 12 12 12 12 12 12 12 12 12 12 12 12 12 12 13 13 14 14 14 14 14
19 19 19 18 18 18 17 17 16 16 16 15 14 14 13 13 12 12 12 11 11 11 11 11 11 12 12 12 12 12 12 12 12 12 12 12 12 12 13 14 14 14 14
19 19 19 19 18 18 17 17 16 16 15 15 14 13 13 12 12 12 11 11 11 11 11 11 11 11 11 11 11 12 11 11 11 11 11 12 12 12 12 12 13 14 14
19 19 19 19 18 18 17 17 16 16 15 14 14 13 12 12 12 11 11 11 11 11 11 10 10 10 11 11 11 11 11 11 11 11 11 11 11 11 11 11 12 13 14
19 19 19 19 18 18 17 17 16 15 15 14 13 12 12 11 11 11 11 10 10 10 10 10 10 10 10 10 10 10 11 11 11 11 11 11 11 11 11 11 11 12 13
19 19 19 19 18 18 17 16 15 15 14 13 12 12 11 11 11 11 10 10 10 10 10 10 10 9 9 9 10 10 10 10 10 10 10 10 11 11 10 11 11 11 12
19 19 19 19 18 17 17 16 15 14 13 12 12 12 11 11 11 11 10 10 10 10 9 9 9 9 9 9 9 9 9 9 9 10 10 10 10 10 10 10 10 10 10
19 19 19 18 17 17 16 15 14 13 13 12 12 11 11 11 10 10 10 10 10 9 9 9 9 9 9 9 9 9 9 9 9 9 9 10 10 10 10 10 10 10 10
20 19 19 18 17 16 15 15 14 13 12 12 11 11 11 10 10 10 10 10 9 9 9 9 9 9 9 8 8 8 8 8 8 9 9 9 9 9 10 10 10 10 10
20 19 18 17 17 16 15 14 13 13 12 12 11 11 11 10 10 10 10 9 9 9 9 8 8 8 8 8 8 8 8 8 8 8 8 8 9 9 9 9 10 10 10
19 18 18 17 16 15 15 14 13 12 12 11 11 11 10 10 10 10 9 9 9 9 9 8 8 8 8 8 8 8 8 8 8 8 8 8 8 8 9 9 9 10 10
19 18 17 17 16 15 14 13 13 12 12 11 11 10 10 10 10 9 9 9 9 8 8 8 8 8 8 8 8 8 8 8 8 8 8 8 8 8 8 8 9 9 9
19 18 17 17 16 15 14 13 12 12 11 11 10 10 10 10 9 9 9 9 9 8 8 8 8 8 8 8 8 8 8 8 8 8 8 8 8 8 8 8 8 9 9
19 18 17 16 15 14 13 13 12 11 11 11 10 10 10 10 9 9 9 9 9 8 8 8 8 8 8 8 8 8 8 8 8 8 8 8 7 7 7 8 8 8 9
19 18 17 16 15 14 13 13 12 11 11 10 10 10 9 9 9 9 9 9 9 8 8 8 8 8 8 8 8 8 7 7 8 8 8 8 7 7 7 7 8 8 8
19 18 17 16 15 14 13 12 12 11 11 10 10 10 9 9 9 9 9 9 8 8 8 8 8 8 8 8 8 8 7 7 7 7 7 7 7 7 7 7 7 8 8
18 17 16 15 15 14 13 12 12 11 10 10 10 9 9 9 9 9 9 8 8 8 8 8 8 8 8 8 8 7 7 7 7 7 7 7 7 7 7 6 7 7 8
18 17 16 15 15 14 13 12 12 11 11 10 10 9 9 9 9 9 9 8 8 8 8 8 8 8 8 8 7 7 7 7 7 7 7 7 6 7 6 6 6 7 7
18 17 16 16 15 14 13 13 12 11 11 10 10 9 9 9 9 8 8 8 8 8 8 8 8 8 8 7 7 7 6 6 6 6 6 6 6 6 6 6 6 7 7
18 17 16 16 15 14 13 13 12 11 11 10 10 9 9 9 8 8 8 8 8 8 8 8 8 8 7 7 7 7 6 6 6 6 6 6 6 6 6 6 6 7 7
18 17 17 16 15 14 13 13 12 11 11 10 10 9 9 9 8 8 8 8 8 8 8 8 8 8 7 7 7 6 6 6 6 6 6 6 6 6 6 6 6 6 6
19 18 17 16 15 14 13 13 12 11 11 10 10 9 9 9 9 8 8 8 8 8 8 8 7 7 7 7 7 6 6 6 6 6 6 6 6 6 6 6 6 6 6
19 18 17 16 15 14 14 13 12 11 11 10 10 9 9 9 9 9 8 8 8 8 8 8 7 7 7 7 7 6 6 6 6 6 6 6 6 6 6 6 6 6 6
19 18 17 16 15 14 14 13 12 11 11 11 10 10 9 9 9 8 9 9 8 8 8 8 7 7 7 7 7 6 6 6 6 6 6 6 6 6 6 6 6 6 7

GEFSMW_850_meantemp_060.txt.gz
Temperature
19 18 18 17 17 17 17 17 17 17 17 16 16 15 15 15 14 14 13 13 13 12 12 12 12 12 13 13 13 13 13 13 14 14 15 16 16 16 16 16 16 16 16
19 18 18 18 17 17 17 17 17 17 16 16 16 15 15 14 14 13 13 12 12 12 12 12 12 12 12 12 12 12 13 13 13 14 14 16 17 16 16 15 15 15 15
20 19 18 18 18 17 17 17 17 16 16 16 15 15 14 14 14 13 13 12 12 12 11 11 11 11 12 12 12 12 12 13 13 13 14 15 16 16 16 15 15 15 15
20 20 19 19 18 18 18 17 17 16 16 16 15 15 14 14 14 13 13 12 11 11 11 11 11 11 11 11 11 12 12 12 13 13 13 13 13 14 15 15 15 14 14
21 20 20 19 19 18 18 17 17 16 16 15 15 14 14 14 13 13 12 11 12 11 11 10 10 10 11 11 11 11 11 11 12 12 13 13 13 13 13 15 15 15 14
21 21 20 19 19 18 18 17 17 16 16 15 14 14 13 13 12 12 12 12 12 11 11 10 10 10 10 10 10 10 11 11 11 11 12 12 13 13 13 14 14 14 14
21 21 20 20 19 18 18 17 16 16 15 15 14 13 13 12 12 12 12 11 12 12 11 10 10 10 10 9 10 10 10 10 10 10 11 12 12 12 12 13 13 14 14
22 21 21 20 19 18 17 17 16 15 15 14 14 13 12 12 12 12 11 11 11 11 10 10 10 9 9 9 9 10 10 10 10 10 10 11 11 12 12 12 12 13 14
22 21 20 20 19 18 17 17 16 15 14 14 13 12 12 12 11 11 11 11 11 11 10 10 9 9 9 9 9 9 9 9 9 10 10 10 11 11 11 11 12 12 13
22 21 20 19 19 18 17 16 16 15 14 13 13 13 12 11 11 11 11 10 10 10 10 9 9 9 9 9 9 9 9 9 9 9 9 9 10 10 11 11 11 11 12
23 21 20 19 18 18 17 16 15 14 14 13 12 12 12 11 11 11 10 10 10 10 10 9 9 9 9 9 9 9 9 9 9 9 9 9 9 9 10 10 11 11 11
22 21 20 19 18 17 17 16 15 14 14 13 12 12 11 11 11 11 10 10 10 10 9 9 9 9 9 9 9 9 9 9 9 9 9 9 9 9 9 10 10 11 11
21 20 19 19 18 17 17 16 15 14 14 13 12 12 11 11 11 10 10 10 10 9 9 9 9 9 9 9 9 8 8 8 8 8 8 8 8 8 9 9 9 10 10
20 20 19 18 18 17 16 16 15 14 14 13 13 12 11 11 11 10 10 10 9 9 9 9 9 9 9 9 9 8 8 8 8 8 8 8 8 8 8 9 9 9 10
20 20 19 18 18 17 16 16 15 14 14 13 12 12 11 11 10 10 10 10 9 9 9 9 9 9 9 9 9 8 8 8 8 8 8 8 8 8 8 8 9 9 9
21 20 19 19 18 17 17 16 15 14 13 13 12 12 11 11 10 10 10 9 9 9 9 9 9 9 9 9 9 9 8 8 8 8 8 8 8 8 8 8 8 8 8
21 21 20 19 18 18 17 16 15 14 13 13 12 12 11 11 10 10 10 9 9 9 9 9 9 9 9 9 9 9 8 8 8 8 8 8 9 8 8 8 8 8 8
22 21 20 19 18 18 17 16 15 14 13 13 12 12 11 11 10 10 10 9 9 9 9 9 9 9 9 9 9 8 8 8 8 8 8 8 8 8 8 7 8 8 8
22 21 20 19 18 18 17 16 15 14 13 13 12 12 11 10 10 10 9 9 9 9 9 9 9 8 9 9 8 8 8 8 8 8 8 8 7 7 7 7 7 7 8
21 21 20 19 18 18 17 16 15 14 14 13 12 12 11 10 10 10 10 9 9 9 9 9 9 8 9 9 8 8 8 8 8 8 8 7 7 7 7 6 6 7 7
21 20 20 19 18 18 17 16 15 14 13 13 12 11 11 10 10 10 10 9 9 9 9 9 9 9 9 8 8 8 8 7 7 8 8 8 7 7 7 7 6 6 7
21 20 20 19 18 18 17 16 15 14 13 13 12 11 11 10 10 10 10 9 9 9 9 9 9 9 9 8 8 8 8 7 7 7 7 7 7 7 7 6 7 7 6
21 20 20 19 18 18 17 17 16 14 14 13 12 12 11 11 10 10 9 9 9 9 9 9 9 10 9 9 8 8 8 7 7 7 7 7 7 7 7 7 6 6 6
20 20 19 19 18 18 17 17 16 15 14 14 13 12 11 11 10 10 10 10 10 10 10 9 9 9 9 9 8 8 7 7 7 7 7 7 7 7 7 6 6 6 6
19 19 19 19 18 17 17 16 16 15 14 14 13 12 11 11 10 10 10 10 9 9 9 9 9 9 9 9 8 8 7 7 7 6 7 7 7 7 7 7 6 6 6
18 17 18 18 17 17 17 16 16 15 14 13 12 12 12 11 11 10 10 10 10 9 9 9 9 9 8 8 8 8 8 7 7 7 6 7 7 7 7 7 7 7 7

GEFSMW_850_meantemp_066.txt.gz
Temperature
20 20 19 19 18 18 18 18 18 18 18 17 17 17 17 17 16 16 16 15 14 14 14 13 14 13 13 13 14 13 14 14 14 15 15 15 16 17 17 17 17 17 17
20 20 20 19 19 19 18 18 18 18 18 17 17 17 17 16 16 16 15 15 14 13 13 13 13 13 13 13 13 13 13 13 14 14 14 15 16 17 17 17 17 17 17
21 20 20 20 19 19 19 19 18 18 17 17 17 16 16 16 16 16 15 15 14 13 13 13 12 12 13 13 13 13 13 13 13 14 14 14 15 15 16 16 16 16 16
21 21 20 20 20 20 19 19 18 18 17 17 16 16 16 16 16 15 15 14 14 13 13 12 12 12 12 12 12 13 13 13 13 13 14 14 14 14 14 16 16 16 16
22 21 21 21 21 20 20 19 18 18 17 17 16 16 16 15 15 15 14 14 14 13 13 13 12 12 12 12 12 12 12 12 12 12 13 13 13 14 14 14 15 15 16
23 22 22 21 21 21 20 19 18 18 17 16 16 15 15 15 15 14 14 14 14 14 14 13 12 12 12 12 12 12 12 12 12 12 12 12 13 13 14 14 14 15 15
23 23 22 22 21 21 20 20 19 18 17 16 16 15 15 14 14 14 14 13 13 14 13 13 12 12 12 12 11 11 11 11 11 12 12 12 12 12 13 13 13 14 14
24 24 23 23 22 21 20 20 19 18 17 16 16 15 15 14 14 14 14 13 13 13 13 12 12 12 11 11 11 11 11 11 11 11 11 11 12 12 12 12 13 13 13
25 24 24 23 22 21 21 20 19 18 17 16 16 15 15 14 14 13 13 13 13 12 12 12 12 11 11 11 11 11 11 11 11 11 11 11 11 11 12 12 12 12 12
25 25 24 23 22 21 20 19 18 18 17 16 15 15 15 14 13 13 13 13 12 12 12 12 11 11 11 11 11 11 11 11 11 11 11 11 11 11 11 11 11 12 12
26 25 24 23 22 21 20 19 18 17 17 16 15 15 14 14 13 13 13 12 12 12 12 12 11 11 11 11 11 11 11 11 11 10 10 11 11 11 11 11 11 11 11
26 25 24 23 22 21 20 19 18 17 17 16 15 15 14 14 13 13 13 12 12 12 12 11 11 11 11 11 11 11 11 10 10 10 10 10 10 10 10 10 10 11 11
26 25 24 23 22 21 20 20 18 18 17 16 16 15 14 14 13 13 13 12 12 12 12 11 11 11 11 11 11 10 10 10 10 10 10 10 10 10 10 10 10 10 10
26 25 24 22 22 21 20 19 19 18 17 17 16 15 15 14 13 13 13 12 12 12 11 11 11 11 11 11 10 10 10 10 10 10 10 10 10 10 10 10 10 10 10
25 24 23 22 21 20 20 19 18 18 17 17 16 15 15 14 14 13 13 12 12 12 11 11 11 11 11 11 11 11 10 10 10 10 10 10 10 10 10 10 10 10 10
25 24 23 22 21 20 19 19 18 17 17 16 16 15 15 14 14 13 13 13 12 12 12 11 11 11 11 11 11 11 10 10 10 10 10 9 9 10 10 10 10 10 9
25 24 23 22 21 20 19 19 18 17 17 16 16 15 15 14 14 14 13 13 12 12 12 11 11 11 11 10 10 10 10 10 10 10 10 9 9 10 10 9 9 9 9
25 25 24 22 21 20 19 19 18 17 17 16 16 15 15 15 14 14 13 13 12 12 12 11 11 11 11 10 10 10 10 10 10 10 9 9 9 9 9 9 9 9 9
25 25 24 23 22 21 20 19 18 18 17 16 16 16 15 15 14 14 13 13 13 12 12 12 11 11 11 10 10 10 10 10 10 9 9 9 9 9 9 9 9 9 9
25 24 24 23 22 21 20 19 18 18 17 17 16 16 16 15 15 14 14 13 13 13 12 12 11 11 11 11 10 10 10 10 9 9 9 9 9 9 9 9 9 8 8
24 24 23 23 22 21 20 19 19 18 18 17 17 16 16 15 15 15 14 13 13 12 12 12 12 11 11 11 11 10 10 10 9 9 9 9 9 9 9 9 8 8 8
24 23 23 22 22 21 20 19 19 18 17 17 16 16 16 15 15 14 14 13 13 12 12 12 12 12 12 11 11 11 10 10 9 9 9 9 8 8 8 8 8 8 8
23 22 22 22 21 20 20 19 18 18 17 16 16 16 16 15 15 15 14 13 13 12 12 12 12 12 12 12 11 11 10 10 9 9 9 8 8 8 8 8 8 8 8
21 21 21 21 20 20 19 18 18 17 17 16 16 16 16 15 15 14 14 13 13 13 13 13 12 12 12 11 11 10 10 9 9 9 9 8 8 8 8 8 8 8 8
20 20 20 20 19 19 18 17 17 16 16 16 16 15 15 14 14 14 14 14 13 13 13 13 12 12 11 11 11 10 10 9 9 9 8 8 8 8 8 8 8 8 8
18 18 18 18 18 18 17 17 16 16 16 15 15 15 14 14 14 14 14 14 14 14 13 13 12 12 12 11 11 10 10 10 9 9 9 8 8 8 8 8 8 8 8

GEFSMW_850_meantemp_072.txt.gz
Temperature
18 18 18 18 19 18 19 19 19 18 18 18 17 17 17 16 16 16 15 15 15 15 14 14 14 14 13 13 13 13 13 14 14 14 14 15 15 15 16 16 16 16 16
18 18 18 18 18 19 19 19 19 18 18 18 17 17 16 16 16 15 15 15 15 14 14 14 13 13 13 13 13 13 13 13 13 13 14 14 15 15 15 15 16 16 16
18 18 18 18 19 19 19 19 19 18 18 17 17 17 16 16 15 15 15 15 14 14 14 14 13 13 13 13 13 12 13 13 13 13 13 13 13 14 15 15 15 15 15
19 19 19 19 19 19 19 19 18 18 18 17 17 17 16 16 15 15 15 14 14 14 13 13 13 13 13 13 12 12 12 12 12 12 12 12 12 13 13 15 15 15 15
19 19 19 20 20 19 19 19 18 18 18 17 17 16 16 15 15 15 14 14 14 14 13 13 13 13 13 12 12 12 12 12 12 12 12 12 12 12 12 13 14 14 14
20 20 20 20 20 19 19 19 19 18 18 17 17 16 16 15 15 15 14 14 14 14 13 13 13 13 13 12 12 12 12 12 11 11 12 12 12 12 12 12 12 13 14
21 20 20 20 20 20 19 19 19 19 18 17 17 16 16 15 15 15 14 14 14 13 13 13 13 13 12 12 12 12 12 11 11 11 11 11 11 11 11 11 12 12 13
21 21 21 21 21 20 20 19 19 19 18 17 17 16 16 16 15 15 14 14 13 13 13 13 12 12 12 12 12 12 12 11 11 11 11 11 11 11 11 11 11 11 12
22 22 22 21 21 21 20 20 19 19 18 17 17 16 16 16 15 15 14 14 14 13 13 12 12 12 12 12 12 11 11 11 11 11 11 11 11 11 11 11 11 10 10
22 22 22 22 21 21 21 20 20 19 18 18 17 17 16 16 15 15 15 14 14 13 13 13 12 12 12 12 11 11 11 11 11 11 11 11 11 11 10 10 10 10 10
23 23 23 22 22 21 21 20 20 19 18 18 17 17 17 16 16 15 15 14 14 13 13 13 12 12 12 12 11 11 11 11 11 11 11 11 11 10 10 10 10 10 10
24 23 23 22 22 21 21 20 20 19 19 18 18 17 17 16 16 16 15 14 14 13 13 13 12 12 12 11 11 11 11 11 11 11 11 11 10 10 10 10 10 10 10
24 23 23 22 22 22 21 21 20 20 19 19 18 18 17 17 16 16 15 14 14 14 13 13 12 12 12 11 11 11 11 11 11 11 10 10 10 10 10 10 10 10 10
24 24 23 23 22 22 21 21 20 20 19 19 18 18 17 17 16 16 15 15 14 14 13 13 13 12 12 12 11 11 11 11 11 10 10 10 10 10 10 10 10 10 10
24 24 23 23 22 22 21 21 21 20 20 19 19 18 17 17 16 16 15 15 14 14 14 13 13 12 12 12 11 11 11 11 10 10 10 10 10 10 10 10 10 9 9
24 24 24 23 23 22 22 21 21 20 20 19 19 18 18 17 17 16 16 15 15 14 14 13 13 13 12 12 11 11 11 11 10 10 10 10 10 10 10 9 9 9 9
24 24 24 24 23 23 22 22 21 20 20 19 19 18 18 17 17 16 16 15 15 15 14 14 13 13 13 12 12 11 11 11 11 10 10 10 10 10 10 9 9 9 9
24 24 24 24 23 23 22 22 21 21 20 20 19 18 18 18 17 16 16 16 15 15 15 14 14 13 13 12 12 11 11 11 11 10 10 10 10 10 9 9 9 9 9
24 24 24 24 23 23 22 22 21 21 20 20 19 19 18 18 17 17 16 16 16 15 15 14 14 14 13 13 12 11 11 11 11 11 10 10 10 10 9 9 9 9 9
23 24 24 23 23 23 22 22 21 21 20 20 20 19 18 18 17 17 17 16 16 15 15 15 14 14 13 13 12 12 11 11 11 11 11 10 10 10 9 9 9 9 9
23 23 23 23 22 22 22 21 21 21 21 20 19 19 18 18 17 17 16 16 16 15 15 15 14 14 13 13 13 12 12 11 11 11 11 10 10 10 9 9 9 9 9
21 22 22 22 22 21 21 21 21 21 20 19 19 18 18 17 17 16 16 16 15 15 15 14 14 14 14 13 13 12 12 11 11 11 11 10 10 9 9 9 9 8 8
20 20 20 20 20 20 20 20 20 19 19 18 18 17 17 17 16 16 15 15 15 14 14 14 14 14 14 13 13 12 12 12 11 11 11 10 10 9 9 9 9 8 8
18 18 19 18 18 18 18 18 18 18 17 17 17 16 16 16 15 15 15 15 14 14 14 14 14 14 14 13 13 12 12 12 11 11 10 10 10 9 9 9 9 8 8
17 17 17 17 17 17 17 17 16 16 16 16 15 15 15 15 14 14 14 14 14 14 13 13 13 13 13 13 13 12 12 12 11 11 10 10 10 9 9 9 9 8 8
15 15 15 15 15 15 15 15 15 14 14 14 14 14 13 13 13 13 13 13 13 13 13 13 13 13 13 13 13 12 12 11 11 10 10 10 10 9 9 9 9 9 8

GEFSMW_850_meantemp_078.txt.gz
Temperature
18 18 18 18 18 17 18 18 18 18 18 17 17 17 17 16 16 15 15 15 14 14 14 13 13 13 13 13 13 13 13 13 14 14 14 14 14 14 14 15 15 15 15
17 17 17 17 17 18 18 18 18 18 18 17 17 17 17 16 16 15 15 14 14 14 13 13 13 13 13 13 13 13 13 13 13 13 14 14 14 14 14 14 15 15 15
17 17 17 17 17 17 18 18 18 18 18 17 17 17 16 16 15 15 15 14 14 14 13 13 13 13 13 12 13 13 13 13 13 13 13 13 13 14 13 14 14 14 14
18 18 18 18 18 18 18 18 18 18 18 17 17 17 16 16 16 15 15 14 14 13 13 13 13 12 12 12 12 12 12 12 12 12 12 12 12 13 13 13 13 14 14
18 18 18 18 18 18 18 18 18 18 18 17 17 17 16 16 15 15 15 14 14 13 13 13 13 12 12 12 12 12 12 12 12 12 12 12 12 12 12 13 13 13 13
19 19 19 19 18 18 18 18 18 18 17 17 17 17 16 16 15 15 15 14 14 13 13 13 13 12 12 12 12 12 12 11 11 11 11 11 11 11 12 12 12 13 13
19 19 19 19 19 18 18 18 18 18 18 17 17 17 16 16 15 15 15 14 14 14 13 13 13 12 12 12 12 12 11 11 11 11 11 11 11 11 11 11 11 12 12
19 20 20 20 19 19 19 19 19 18 18 18 17 17 16 16 15 15 15 14 14 13 13 13 13 12 12 12 12 11 11 11 11 11 11 11 11 11 11 11 11 11 11
20 20 20 20 20 20 20 19 19 19 18 18 17 17 16 16 16 15 15 14 14 13 13 13 13 12 12 12 12 12 11 11 11 11 11 11 11 10 10 10 10 10 10
21 21 21 21 21 21 20 20 20 19 19 18 18 17 16 16 16 15 15 15 14 14 13 13 13 13 12 12 12 12 11 11 11 11 11 11 11 10 10 10 10 10 10
22 22 22 22 21 21 21 20 20 20 19 18 18 17 17 16 16 16 15 15 15 14 14 14 13 13 13 12 12 12 12 11 11 11 11 11 10 10 10 10 10 10 10
23 22 22 22 22 21 21 21 20 20 19 19 18 17 17 16 16 16 16 15 15 15 14 14 14 13 13 13 12 12 12 12 11 11 11 11 10 10 10 10 10 10 10
23 23 22 22 22 22 22 21 21 20 20 19 18 18 17 17 17 16 16 16 15 15 15 14 14 14 13 13 13 12 12 12 11 11 11 11 10 10 10 10 10 10 10
23 23 23 23 23 22 22 22 21 21 20 19 19 18 18 17 17 17 16 16 16 15 15 15 14 14 14 13 13 12 12 12 12 11 11 11 11 10 10 10 10 10 10
23 23 23 23 23 23 22 22 21 21 20 20 19 19 18 18 17 17 17 16 16 16 15 15 15 14 14 13 13 13 12 12 12 12 11 11 11 10 10 10 10 10 9
22 23 23 23 23 23 23 22 22 21 21 20 20 19 19 18 18 17 17 17 16 16 16 15 15 15 14 14 13 13 13 12 12 12 11 11 11 11 10 10 10 10 9
21 22 22 23 22 23 22 22 21 21 21 20 20 19 19 18 18 18 17 17 17 16 16 16 15 15 15 14 13 13 13 12 12 12 11 11 11 11 10 10 10 10 9
20 21 22 22 22 22 22 22 21 21 20 20 20 19 19 19 18 18 17 17 17 16 16 16 15 15 15 14 14 13 13 12 12 12 12 11 11 11 10 10 10 10 10
19 20 21 21 21 22 21 21 21 20 20 20 19 19 19 18 18 18 17 17 17 16 16 16 15 15 15 14 14 13 13 13 13 12 12 11 11 11 10 10 10 10 10
19 20 20 20 21 20 20 20 20 20 19 19 19 19 18 18 18 17 17 17 16 16 16 15 15 15 15 14 14 13 13 13 13 13 12 12 11 11 11 10 10 10 10
18 19 19 19 19 19 19 19 19 19 19 18 18 18 17 17 17 17 16 16 16 15 15 15 15 15 14 14 14 13 13 13 13 12 12 12 12 11 11 10 10 10 10
18 18 18 18 18 18 18 18 17 17 17 17 17 17 17 16 16 16 15 15 15 15 15 14 14 14 14 14 14 13 13 12 12 12 12 12 12 11 11 10 10 10 9
16 17 17 16 16 16 16 16 16 16 16 16 16 16 15 15 15 15 14 14 14 14 14 13 13 14 14 13 13 13 13 12 12 12 12 12 12 11 11 11 10 10 9
15 15 15 15 15 14 15 15 14 14 15 14 14 14 14 14 13 13 13 13 13 13 12 12 12 12 13 13 13 13 12 12 12 12 12 12 11 11 11 11 10 10 10
14 14 14 14 13 13 13 13 13 13 13 13 13 13 13 12 12 12 12 12 12 11 11 11 11 11 11 12 12 11 12 12 12 11 11 11 11 11 11 11 10 10 10
13 13 13 13 12 12 12 12 12 12 12 12 12 12 11 11 11 11 11 11 11 11 10 10 10 10 10 11 11 11 11 11 11 11 11 11 11 11 11 11 10 10 10

GEFSMW_850_meantemp_084.txt.gz
Temperature
19 18 18 18 18 18 18 18 18 18 17 17 17 17 16 16 16 15 15 15 14 14 14 14 13 13 13 13 13 13 14 14 14 15 15 15 15 15 15 15 15 15 15
19 18 18 17 17 18 18 18 18 17 17 17 17 17 16 16 16 15 15 15 14 14 14 14 14 13 13 13 13 13 14 14 14 15 16 17 16 14 15 15 15 15 15
19 18 18 17 17 17 18 18 17 17 17 17 17 16 16 16 15 15 15 15 14 14 14 13 13 13 13 13 13 12 13 14 14 14 15 17 18 16 15 14 14 14 15
19 18 18 17 17 17 17 18 18 18 18 17 17 16 16 16 16 15 15 15 14 14 14 13 13 13 13 13 13 13 13 13 14 14 13 14 14 15 16 15 15 14 14
19 19 18 18 18 17 17 17 18 18 18 17 17 16 16 16 16 15 15 15 14 14 14 13 13 13 13 13 12 12 12 13 13 14 14 14 14 14 15 16 15 15 15
20 19 18 18 18 17 17 17 18 18 18 17 17 17 16 16 16 16 15 15 14 14 14 13 13 13 13 12 12 12 12 12 12 13 13 14 14 15 15 15 15 15 15
20 19 18 18 18 18 18 17 18 18 18 17 17 17 17 16 16 16 15 15 15 14 14 13 13 13 12 12 12 12 12 12 12 12 12 13 13 13 14 14 15 15 15
21 20 19 19 18 18 18 18 18 18 18 18 17 17 17 16 16 16 16 15 15 15 14 13 13 13 13 12 12 12 12 12 12 12 12 12 13 13 13 13 14 15 15
22 21 20 19 19 18 18 18 18 18 18 18 18 17 17 17 16 16 16 15 15 14 14 14 13 13 13 12 12 12 12 12 12 12 12 12 13 12 12 12 13 13 15
22 22 21 20 19 19 19 18 18 18 18 18 18 18 18 17 17 16 16 15 15 15 14 14 13 13 13 13 12 12 12 12 12 12 11 12 12 12 12 12 12 12 13
23 22 22 21 20 20 19 19 19 19 19 18 18 18 18 18 17 17 16 16 15 15 15 14 14 13 13 13 13 12 12 12 12 12 12 12 11 12 12 12 12 12 12
24 23 22 22 21 21 20 19 19 19 19 19 19 19 18 18 18 17 17 16 16 15 15 14 14 14 13 13 13 12 12 12 12 12 12 12 12 11 12 12 12 12 12
24 23 23 22 22 21 21 20 20 19 19 19 19 19 19 18 18 17 17 17 16 16 15 15 15 14 14 14 13 13 13 13 12 12 12 12 12 11 12 11 12 12 12
23 23 23 22 22 21 21 20 20 20 19 19 20 19 19 19 18 18 17 17 16 16 16 16 15 15 14 14 14 14 13 13 13 13 12 12 12 12 11 11 11 11 11
23 22 22 22 21 21 20 20 20 20 20 20 20 19 19 19 18 18 17 17 17 16 16 16 15 15 15 14 14 14 14 13 13 13 13 13 13 12 12 12 12 11 11
22 22 21 21 21 20 20 20 20 20 20 20 20 19 19 19 19 18 18 17 17 17 16 16 16 15 15 15 15 15 14 13 13 13 13 13 13 13 13 13 12 12 11
20 20 20 20 20 20 20 20 19 19 19 19 19 19 19 19 19 18 18 17 17 17 17 16 16 16 16 16 16 15 15 14 13 13 13 13 13 13 12 12 12 12 12
19 19 19 19 19 19 19 19 19 18 18 18 18 18 19 18 18 18 17 17 17 17 16 16 16 16 16 16 16 15 15 14 14 14 13 13 13 13 12 12 11 11 11
17 17 18 18 18 18 18 18 18 17 17 17 17 17 17 17 17 17 17 17 17 16 16 16 16 16 16 16 16 15 14 14 14 14 13 13 13 13 13 12 12 11 11
16 16 16 17 17 17 17 17 17 17 16 16 16 16 16 16 16 16 16 16 16 16 16 15 15 15 15 15 15 15 14 13 13 13 13 13 13 13 13 12 12 11 11
15 15 16 16 16 16 16 16 16 16 15 15 15 15 15 15 15 15 15 15 15 15 15 14 14 14 14 14 14 14 14 13 13 13 13 13 13 13 13 12 12 12 11
14 15 15 15 15 15 15 15 15 14 14 15 15 15 15 14 14 15 15 14 14 14 13 13 13 13 13 13 13 13 13 13 12 12 12 13 13 12 12 12 12 12 11
14 14 14 14 14 14 14 14 13 13 13 13 13 13 13 13 13 13 13 13 13 13 13 13 13 13 12 12 12 12 12 12 12 11 11 12 12 12 11 11 11 11 11
13 13 13 13 12 13 13 12 12 12 12 12 12 12 12 12 12 12 12 12 12 12 12 12 12 12 12 11 11 11 11 11 11 11 11 11 11 11 11 11 11 11 10
13 12 12 12 11 11 11 11 11 11 11 11 11 11 12 11 11 11 11 11 11 10 10 10 10 10 10 10 10 10 10 10 10 9 9 10 10 10 11 10 10 10 10
12 12 12 11 11 11 11 11 11 11 11 11 11 11 11 11 11 11 11 11 10 10 10 10 10 9 9 9 9 9 9 9 9 9 9 9 10 10 11 11 10 10 10

GEFSMW_850_meantemp_090.txt.gz
Temperature
21 21 20 19 19 19 19 19 18 18 18 18 18 18 17 17 17 17 16 16 16 16 16 15 15 15 15 15 15 15 15 16 16 16 16 17 17 17 16 16 16 16 16
21 20 20 19 19 19 18 18 18 18 18 18 18 18 17 17 17 17 16 16 16 16 16 15 15 15 15 15 15 15 15 16 16 16 16 17 17 17 17 17 16 16 16
21 20 20 19 19 18 19 18 18 18 18 18 18 17 17 17 17 17 16 16 16 15 15 15 15 15 15 15 15 15 15 16 16 16 16 16 16 16 17 16 16 16 16
22 21 20 19 19 18 18 18 18 18 18 17 17 17 17 17 17 17 16 16 16 15 15 15 15 15 15 15 15 15 15 15 15 16 16 16 16 16 16 16 16 16 16
22 21 20 19 19 18 18 18 18 18 18 17 17 17 17 17 17 17 17 16 16 15 15 15 15 15 14 14 14 15 15 15 15 15 16 16 16 16 17 17 16 16 16
22 21 20 19 19 18 18 18 18 18 18 18 17 17 17 17 17 17 17 16 16 16 15 15 15 15 14 14 14 14 14 14 15 15 15 15 16 16 16 16 17 16 16
23 21 20 19 19 19 18 18 18 18 18 18 18 18 17 17 17 17 17 17 16 16 16 15 15 15 14 14 14 14 14 14 14 15 15 15 15 15 15 15 16 16 16
23 22 21 20 19 19 18 18 18 18 18 18 18 18 18 17 17 17 17 17 17 17 16 16 16 15 15 14 14 14 14 14 14 14 14 14 14 15 15 15 15 15 16
24 23 21 20 19 19 19 18 18 18 18 18 18 18 18 18 17 17 17 17 17 17 17 16 16 15 15 14 14 14 14 14 14 14 14 14 14 14 14 15 15 15 15
24 23 22 21 20 19 19 19 18 18 18 18 18 18 18 18 18 17 17 17 17 17 17 16 16 15 15 15 15 14 14 14 14 14 14 14 14 14 14 14 14 14 14
25 24 23 22 21 20 19 19 18 18 18 18 18 18 18 18 18 18 18 17 17 17 17 16 16 15 15 15 15 15 14 14 14 14 14 14 14 14 14 14 14 14 14
25 24 23 22 22 21 20 19 19 19 18 18 18 18 18 18 18 18 18 18 17 17 17 17 16 16 16 15 15 15 15 14 14 14 14 14 14 14 14 14 14 14 14
25 25 24 23 22 22 21 20 20 19 19 19 19 18 18 18 18 18 18 18 18 17 17 17 17 16 16 16 16 16 15 15 15 15 14 14 14 14 14 14 14 14 14
25 25 24 23 23 22 22 21 21 20 20 19 19 19 18 18 18 18 18 18 18 18 17 17 17 17 16 16 16 16 16 15 15 15 15 15 14 14 14 14 14 14 14
25 24 24 23 23 23 22 22 21 21 20 20 19 19 19 18 18 18 17 17 17 17 17 17 17 17 16 16 16 16 16 16 16 15 15 15 15 15 14 14 14 13 13
24 23 23 22 22 22 22 22 21 21 21 20 20 19 19 18 18 18 17 17 17 17 17 17 17 17 16 16 16 16 16 15 15 15 15 15 15 15 15 15 14 14 14
22 22 21 21 21 21 21 21 21 21 21 20 20 19 19 18 18 17 17 17 17 17 16 16 16 16 17 16 16 16 16 16 15 15 15 15 14 15 15 15 15 14 14
21 20 20 20 20 20 20 20 20 20 20 19 19 19 18 18 17 17 17 17 16 16 16 16 16 16 16 16 16 16 16 15 16 15 15 15 15 15 14 14 14 14 14
19 19 19 18 19 19 19 19 19 19 18 18 18 18 17 17 17 17 16 16 16 16 16 16 15 15 16 15 15 15 15 15 15 15 15 15 14 14 14 14 14 13 14
17 17 17 17 17 17 18 18 17 17 17 17 16 16 16 16 16 16 16 15 15 15 15 15 15 15 15 15 14 14 14 14 14 14 14 14 14 14 14 13 13 13 13
16 16 16 16 16 16 16 16 16 16 15 15 15 15 15 15 15 15 14 15 15 15 14 14 14 14 14 14 14 14 13 13 13 13 13 13 13 13 13 13 13 13 13
15 15 15 14 15 15 15 15 14 14 14 14 14 14 14 14 14 14 14 14 14 14 14 14 14 14 13 13 13 13 13 13 12 12 12 12 12 12 12 12 13 13 12
14 14 14 13 13 13 14 13 13 13 13 13 13 13 13 13 13 13 13 13 13 13 13 13 13 13 13 12 12 12 12 12 11 11 11 11 11 11 12 12 12 12 12
14 14 13 13 12 12 12 12 12 12 12 12 12 12 13 13 12 12 12 12 12 12 12 12 12 12 12 12 11 11 11 11 11 11 10 10 11 11 11 11 11 11 11
14 13 13 12 12 12 12 12 12 12 12 12 12 12 12 12 12 12 12 12 12 12 11 11 11 11 11 10 10 10 10 10 10 9 9 10 10 9 10 10 10 11 11
13 13 12 12 12 12 11 11 11 11 11 11 12 12 12 12 12 12 12 12 12 12 11 11 11 10 10 10 9 9 9 9 9 9 9 9 9 9 9 9 10 10 10

GEFSMW_850_meantemp_096.txt.gz
Temperature
20 19 19 19 19 19 19 19 19 18 18 18 18 18 18 18 18 17 17 17 17 16 16 16 15 15 15 15 15 15 15 16 16 16 16 16 16 16 16 16 16 16 16
19 19 19 19 19 19 19 19 19 18 18 18 18 18 18 18 17 17 17 17 16 16 16 15 15 15 15 15 15 15 15 15 16 16 16 16 16 16 16 16 16 16 16
19 19 19 19 19 19 19 19 19 18 18 18 18 18 18 17 17 17 17 16 16 16 16 15 15 15 15 15 15 15 15 15 15 16 16 16 16 16 16 16 16 16 16
19 19 19 19 19 19 19 19 18 18 18 18 18 18 18 17 17 17 17 16 16 16 16 15 15 15 15 15 15 15 15 15 15 15 16 16 16 16 16 16 16 16 16
20 20 19 19 19 19 19 18 18 18 18 18 18 18 18 18 17 17 17 16 16 16 16 15 15 15 15 15 15 15 15 15 15 15 15 15 15 16 16 16 16 16 16
20 20 19 19 19 18 18 18 18 18 18 18 18 18 18 17 17 17 17 16 16 16 16 15 15 15 15 15 15 15 15 15 15 15 15 15 15 15 16 15 15 16 16
20 20 19 19 19 18 18 18 18 18 18 18 18 18 17 17 17 17 17 17 16 16 16 16 15 15 15 15 15 15 15 15 15 15 15 15 15 15 15 15 15 15 15
20 20 20 19 19 18 18 18 18 18 18 18 18 18 17 17 17 17 17 17 17 17 16 16 16 15 15 15 15 15 15 14 14 15 15 15 15 15 15 15 15 15 15
21 20 20 20 19 19 19 18 18 18 18 18 18 18 18 17 17 17 17 17 17 17 16 16 16 15 15 15 15 15 15 14 14 14 14 15 14 14 14 14 15 15 15
21 21 20 20 20 19 19 19 19 19 18 18 18 18 18 18 18 17 17 17 17 17 16 16 16 16 15 15 15 15 15 14 14 14 14 14 14 14 14 14 14 14 14
21 21 21 20 20 19 19 19 19 19 18 18 18 18 18 18 17 17 17 17 17 17 17 16 16 16 16 16 15 15 15 15 15 15 15 15 14 14 14 14 14 14 14
22 21 21 20 20 19 19 19 19 19 19 19 18 18 18 18 18 18 17 17 17 17 17 17 16 16 16 16 16 16 16 15 15 15 15 15 15 15 14 14 14 14 14
21 21 21 20 20 20 19 19 19 19 19 19 18 18 18 18 18 18 18 17 17 17 17 17 16 16 16 16 16 16 16 16 16 15 15 15 15 15 15 15 14 14 14
21 21 20 20 20 20 20 19 19 19 19 19 19 19 18 18 18 18 18 17 17 17 17 17 17 16 16 16 16 16 16 16 16 15 15 15 15 15 15 15 15 14 14
20 20 20 20 20 20 19 19 19 19 19 18 18 18 18 18 18 18 18 17 17 17 17 17 16 16 16 16 16 16 16 16 15 15 15 15 15 15 15 15 14 14 14
19 19 19 20 19 19 19 19 19 19 18 18 18 18 18 17 17 17 17 17 17 16 16 16 16 16 16 16 15 15 15 15 15 15 15 15 15 15 14 14 14 14 14
18 18 18 18 19 19 19 18 18 18 18 18 17 17 17 17 17 17 16 16 16 16 16 16 15 15 15 15 15 15 15 15 15 15 15 15 15 14 14 14 14 14 14
17 17 17 17 18 18 18 18 17 17 17 17 17 17 17 17 17 16 16 16 16 16 15 15 15 15 15 15 15 15 14 14 14 14 14 14 14 14 14 14 14 14 14
16 16 16 16 17 17 17 17 16 16 16 16 16 16 16 16 16 16 16 15 15 15 15 15 14 14 14 14 14 14 14 14 14 14 14 14 14 13 13 13 13 13 13
15 15 15 16 16 15 16 16 16 15 15 15 15 15 15 15 15 15 15 14 14 14 14 14 14 13 13 13 13 13 13 13 13 13 13 13 13 13 12 12 12 12 13
15 15 15 15 15 15 15 15 15 14 14 14 14 14 14 14 14 14 13 13 13 13 13 13 13 13 13 13 13 12 12 12 12 12 12 12 12 12 12 11 11 11 11
14 14 14 14 13 14 14 14 13 13 13 13 13 13 13 13 13 13 13 13 13 12 12 12 12 12 12 12 12 12 11 11 11 11 11 11 11 11 11 11 10 10 10
13 13 13 13 13 13 13 13 12 12 13 13 13 12 12 12 12 12 12 12 12 12 11 11 11 11 11 11 11 11 11 10 10 10 10 10 10 10 10 10 10 10 10
13 13 13 12 12 12 12 12 12 12 12 12 12 12 12 12 12 12 12 11 11 11 11 11 10 10 10 10 10 10 10 10 10 9 9 9 9 9 9 9 9 9 8
12 12 12 12 11 11 11 11 11 11 12 11 11 11 11 11 11 11 11 11 11 10 10 10 10 10 9 9 9 9 9 9 8 8 8 8 8 8 8 8 8 8 8
12 12 12 11 11 11 11 11 11 11 11 11 11 11 11 11 11 11 10 10 10 10 10 9 9 9 8 8 8 8 8 8 7 7 7 7 7 7 6 6 6 7 7

GEFSMW_850_meantemp_102.txt.gz
Temperature
19 18 18 18 18 18 18 18 18 18 18 18 17 17 17 17 17 17 17 16 16 16 16 15 15 15 15 15 15 15 15 15 15 15 15 15 15 15 15 16 16 16 16
18 18 18 18 18 18 18 18 18 18 18 18 18 18 17 17 17 17 16 16 16 16 15 15 15 15 15 15 15 15 15 15 15 15 15 15 15 15 15 15 15 15 15
18 18 18 18 18 18 18 17 17 18 18 18 17 17 17 17 17 16 16 16 16 15 15 15 15 15 15 15 15 15 15 15 15 15 15 15 15 15 15 15 15 15 15
18 19 18 18 18 18 18 18 18 17 18 18 17 17 17 17 17 17 16 16 16 15 15 15 15 15 15 14 14 14 15 15 15 15 15 15 16 15 15 15 15 15 15
19 19 19 18 18 18 18 18 17 17 17 17 17 17 17 17 17 17 16 16 16 15 15 15 15 15 14 14 14 14 14 15 15 15 15 15 15 16 16 15 15 15 15
19 19 19 18 18 18 18 18 17 17 17 17 17 17 17 17 17 17 16 16 16 16 15 15 15 15 15 14 14 14 14 14 15 15 15 15 15 15 15 15 15 15 15
19 19 19 19 18 18 18 17 17 17 17 17 17 17 17 17 17 17 17 16 16 16 16 15 15 15 15 14 14 14 14 14 14 14 15 15 15 15 15 15 15 15 15
20 19 19 19 19 18 18 18 17 17 17 17 17 17 17 17 17 17 17 16 16 16 16 15 15 15 15 14 14 14 14 14 14 14 14 14 14 15 15 15 15 15 15
20 20 20 19 19 18 18 18 18 17 17 17 17 17 17 17 17 17 17 17 16 16 16 16 15 15 15 15 14 14 14 14 14 14 14 14 14 14 14 14 14 14 14
20 20 20 19 19 19 19 18 18 18 18 17 17 17 17 17 17 17 17 17 16 16 16 16 16 15 15 15 15 14 14 14 14 14 14 14 14 14 14 14 14 14 14
20 20 20 20 19 19 19 18 18 18 18 17 17 17 17 17 17 17 17 17 16 16 16 16 16 16 15 15 15 15 14 14 14 14 14 14 14 14 13 14 14 14 14
20 20 20 19 19 19 19 18 18 18 18 18 17 17 17 17 17 17 17 17 16 16 16 16 16 16 16 15 15 15 14 14 14 14 14 14 14 14 14 14 14 14 14
20 20 20 19 19 19 19 18 18 18 18 18 18 18 17 17 17 17 17 17 17 16 16 16 16 16 16 15 15 15 15 14 14 14 14 14 14 14 14 14 14 14 14
20 20 20 20 19 19 19 19 18 18 18 18 18 17 17 17 17 17 17 17 17 16 16 16 16 16 16 16 15 15 15 14 14 14 14 14 14 14 14 14 14 14 14
19 19 19 19 19 19 19 19 18 18 18 18 17 17 17 17 17 17 17 17 17 16 16 16 16 16 16 16 15 15 15 14 14 14 14 14 14 14 14 14 14 14 14
18 18 18 19 19 19 19 18 18 18 18 17 17 17 17 17 17 17 17 17 16 16 16 16 16 16 15 15 15 15 14 14 14 14 14 14 14 14 14 14 14 13 13
17 18 18 18 18 18 18 18 18 18 17 17 17 17 17 16 16 16 16 16 16 16 16 16 15 15 15 15 14 14 14 14 14 14 14 14 14 14 14 14 14 13 13
17 17 17 17 17 17 17 17 17 17 16 16 16 16 16 16 16 16 16 16 16 15 15 15 15 15 14 14 14 14 14 13 13 13 13 13 13 13 13 13 13 13 13
16 16 16 16 16 16 16 16 16 16 16 16 15 15 15 15 15 15 15 15 15 15 14 14 14 14 14 13 13 13 13 13 13 13 13 13 13 13 13 12 13 13 13
14 15 15 15 15 15 15 15 15 15 15 15 14 14 14 15 14 14 14 14 14 14 13 13 13 13 13 12 12 12 12 12 12 12 12 12 12 12 12 12 12 12 12
14 14 14 14 14 14 14 15 14 14 14 14 14 14 14 14 13 13 13 13 13 13 13 12 12 12 11 11 11 11 11 11 11 11 11 11 11 11 11 11 11 10 10
13 13 13 13 13 13 14 14 13 13 13 13 13 13 13 13 13 13 12 12 12 12 12 11 11 11 11 10 10 10 10 10 10 10 10 10 10 10 9 9 9 9 9
12 12 13 12 12 12 13 13 12 12 12 12 12 12 12 12 12 12 12 12 11 11 11 11 10 10 10 10 10 9 9 9 9 9 9 9 9 9 8 8 8 8 8
12 12 12 12 12 12 12 12 12 12 12 12 12 12 12 11 11 11 11 11 11 10 10 10 10 9 9 9 9 9 9 8 8 8 8 8 8 7 7 7 7 7 7
12 12 12 11 11 11 11 11 11 11 11 11 11 11 11 11 11 10 10 10 10 9 9 9 9 8 8 8 8 8 8 8 7 7 7 7 7 7 7 7 6 6 6
11 11 11 11 11 11 11 11 11 11 11 11 10 10 10 10 10 10 9 9 9 8 8 8 8 7 7 7 7 7 7 6 6 6 6 6 6 6 6 5 5 5 5

GEFSMW_850_meantemp_108.txt.gz
Temperature
20 19 18 18 17 17 17 18 17 18 17 17 17 17 17 17 17 17 17 17 16 16 16 16 16 15 15 15 15 15 15 16 16 16 16 16 16 16 16 16 16 16 16
20 18 18 18 18 17 17 17 17 18 17 17 17 17 17 17 17 16 17 16 16 16 16 15 15 15 15 15 15 15 16 16 16 16 17 17 17 16 16 16 16 16 16
20 19 18 18 18 17 17 17 17 17 17 17 17 17 17 17 17 16 16 16 16 16 15 15 15 15 15 15 15 15 15 16 16 16 17 18 18 18 17 16 16 16 16
20 19 18 18 18 18 17 17 17 17 17 17 17 17 17 17 17 17 16 16 16 15 15 15 15 15 15 15 15 15 15 15 16 16 16 16 17 18 18 17 16 16 16
21 20 19 18 18 18 17 17 17 17 17 17 17 17 17 17 17 16 16 16 16 16 15 15 15 15 15 15 15 15 15 15 16 16 16 16 16 17 17 18 17 17 16
21 20 19 18 18 17 17 17 17 17 17 17 17 17 17 17 17 17 16 16 16 15 15 15 15 15 15 15 15 14 15 15 15 15 16 16 17 17 17 18 17 17 17
21 20 19 18 18 17 17 17 17 17 17 17 17 17 17 17 17 17 16 16 16 16 16 15 15 15 15 15 15 15 15 14 14 15 15 16 16 16 17 17 18 17 17
22 21 20 19 18 18 17 17 17 17 17 17 17 17 17 17 17 17 16 16 16 16 16 16 15 15 15 15 15 14 14 14 14 14 15 15 15 16 16 16 17 17 18
22 21 20 19 18 18 18 17 17 17 17 17 17 17 17 17 17 17 17 16 16 16 16 16 15 15 15 15 15 15 14 14 14 14 14 15 15 15 15 15 16 17 18
22 21 20 20 19 18 18 17 17 17 17 17 17 17 17 17 17 17 16 16 16 16 16 16 16 16 15 15 15 15 14 14 14 14 14 14 15 15 15 15 15 15 16
22 21 20 20 19 18 18 17 17 17 17 17 17 17 17 17 17 17 17 16 16 16 16 16 16 16 16 15 15 15 14 14 14 14 14 14 14 14 15 15 15 15 15
22 21 20 19 19 18 18 18 17 17 17 17 17 17 17 17 17 17 17 17 16 16 16 16 16 16 15 16 16 15 15 14 14 14 14 14 14 14 14 14 14 15 14
22 21 20 19 19 19 18 18 17 17 17 17 17 17 17 17 17 17 17 17 16 16 16 16 16 16 16 16 16 15 15 15 14 14 14 14 14 14 14 14 14 14 14
21 20 19 19 18 18 18 17 17 17 17 17 17 17 17 17 17 17 17 16 16 16 16 16 16 16 16 15 15 15 15 15 15 14 14 14 14 14 14 14 14 14 14
20 19 19 18 18 18 17 17 17 17 17 17 17 17 17 17 17 16 16 16 16 16 16 16 16 15 15 15 15 15 15 15 15 14 14 14 14 14 14 14 14 14 14
19 19 18 18 17 17 17 17 17 17 16 16 16 16 16 16 16 16 16 16 16 16 15 15 15 15 15 15 15 15 15 15 14 14 14 14 14 14 14 14 14 14 13
18 18 17 17 17 17 17 17 16 16 16 16 16 16 16 16 16 16 15 16 16 15 15 15 15 15 15 15 15 15 15 14 14 14 14 13 13 13 13 13 14 13 13
17 17 16 16 16 16 16 16 16 16 16 16 16 15 15 15 15 15 15 15 15 15 15 14 14 14 14 14 14 14 14 13 13 13 13 13 13 13 13 13 12 12 12
16 15 15 16 15 15 15 15 15 15 15 15 15 15 15 15 15 15 15 14 14 14 14 14 13 13 13 13 13 13 13 13 12 12 12 12 12 12 12 12 12 12 12
15 15 15 15 15 14 15 15 15 14 14 14 14 14 14 14 14 14 14 14 13 13 13 13 12 12 12 12 12 12 12 12 11 11 11 11 11 11 11 11 11 11 11
14 14 14 14 14 14 14 14 14 13 13 14 13 13 13 13 13 13 13 13 12 12 12 12 11 11 11 11 11 11 11 11 10 10 10 10 10 10 10 10 10 10 10
13 13 13 13 13 13 13 13 13 13 13 13 13 13 13 12 12 12 12 12 11 11 11 11 10 10 10 10 10 10 10 10 9 9 9 9 9 9 9 9 9 9 9
12 12 12 12 12 12 12 12 12 12 12 12 12 12 12 12 11 11 11 11 11 11 10 10 10 9 9 9 9 9 9 9 9 8 8 8 8 8 8 8 8 8 7
11 11 11 11 11 11 11 12 11 11 12 11 11 11 11 11 11 10 10 10 10 10 10 9 9 9 8 8 8 8 8 8 8 7 7 7 7 7 7 7 7 7 6
11 11 11 11 11 11 11 11 11 11 11 11 10 10 10 10 10 10 10 9 9 9 9 8 8 8 8 8 7 7 7 7 7 7 7 7 7 7 7 6 6 6 5
11 11 11 11 10 10 10 11 11 11 11 10 10 10 10 9 9 9 9 8 8 8 8 8 7 7 7 6 6 6 6 6 6 6 6 6 6 6 6 5 5 5 5

GEFSMW_850_meantemp_114.txt.gz
Temperature
22 21 20 20 19 19 18 18 18 18 18 18 18 18 18 18 18 18 18 17 17 17 17 17 17 17 17 17 17 17 17 17 17 17 17 17 17 17 17 17 17 17 17
22 21 20 19 19 19 18 18 18 18 18 18 18 18 18 18 18 18 18 17 17 17 17 17 17 17 17 17 16 16 17 17 17 17 17 17 17 17 17 17 17 17 17
22 21 20 19 19 19 18 18 18 18 18 18 18 18 18 18 18 17 17 17 17 17 17 17 17 17 17 17 16 16 17 17 17 17 17 17 18 17 17 17 17 17 17
23 21 20 19 19 19 19 18 18 18 18 18 18 18 18 18 18 18 17 17 17 17 17 17 17 17 16 16 16 16 16 17 17 17 17 17 17 17 17 17 17 17 17
23 22 21 20 19 19 18 18 18 18 18 18 18 18 18 18 18 17 17 17 17 17 16 16 16 16 16 16 16 16 16 17 17 17 18 18 18 18 18 17 17 17 17
24 22 21 20 20 19 19 18 18 18 18 18 18 18 18 18 18 17 17 17 17 17 16 16 16 16 16 16 16 16 16 16 17 17 17 18 18 18 18 18 18 18 17
24 22 21 20 20 19 19 18 18 18 18 18 18 18 18 18 18 17 17 17 17 17 16 16 16 16 16 16 16 16 16 16 16 17 17 17 17 18 18 18 18 18 18
24 23 22 21 20 19 19 18 18 18 18 18 18 18 18 17 17 17 17 17 17 17 17 17 17 16 16 16 16 16 16 16 16 16 16 17 17 17 17 18 18 18 18
25 23 22 21 20 19 19 19 18 18 18 18 18 18 18 17 17 17 17 17 17 17 17 17 17 16 16 16 16 16 16 16 16 16 16 16 17 17 17 17 17 17 18
25 24 22 21 20 20 19 19 18 18 18 18 18 18 18 18 17 17 17 17 17 17 17 17 17 16 16 16 16 16 16 16 16 16 16 16 16 16 16 17 17 17 17
25 24 23 22 21 20 19 19 18 18 18 18 17 17 17 18 17 17 17 17 17 17 17 17 16 16 16 16 16 16 16 16 16 16 16 16 16 16 16 16 16 16 17
25 24 23 22 21 20 20 19 18 18 18 18 17 17 17 17 17 17 17 17 17 17 17 17 16 16 16 16 16 16 16 16 16 16 15 16 16 16 16 16 16 16 16
25 24 23 22 21 21 20 19 19 18 18 17 17 17 17 17 17 17 17 17 17 17 17 16 16 16 16 16 16 16 16 16 16 15 15 15 15 15 15 16 16 16 16
24 23 22 21 21 20 20 19 19 18 18 17 17 17 17 17 17 17 17 17 17 17 16 16 16 16 16 16 16 16 16 16 16 15 15 15 15 15 15 15 15 15 15
24 23 22 21 20 20 20 19 19 18 18 18 17 17 17 17 17 17 17 16 16 16 16 16 16 16 16 16 16 16 15 15 15 15 15 15 15 15 15 15 15 15 15
22 22 21 20 20 19 19 19 19 18 18 18 17 17 17 17 17 16 16 16 16 16 16 16 16 15 15 15 16 16 15 15 15 15 15 15 14 14 14 14 14 14 14
22 21 20 19 19 19 19 18 18 18 18 17 17 17 17 16 16 16 16 16 16 16 16 15 15 15 15 15 15 15 15 15 14 14 14 14 14 14 14 14 14 14 14
20 20 19 19 19 18 18 18 18 17 17 17 17 16 16 16 16 16 15 15 15 15 15 15 15 14 14 14 15 14 14 14 14 13 13 13 13 13 13 13 13 13 13
19 19 18 18 18 18 17 17 17 17 16 16 16 16 16 16 15 15 15 15 14 14 14 14 14 14 13 14 14 14 13 13 13 13 12 12 12 12 12 12 12 12 12
18 18 17 17 17 17 16 16 16 16 15 15 15 15 15 15 14 14 14 14 14 13 13 13 13 13 13 13 13 13 12 12 12 12 11 11 11 11 11 11 11 11 11
17 17 16 16 16 16 16 15 15 15 14 14 14 14 14 14 14 13 13 13 13 13 12 12 12 12 12 12 12 12 12 11 11 11 10 10 10 10 10 10 10 10 10
16 15 15 15 15 15 15 14 14 14 14 14 14 13 13 13 13 13 13 13 12 12 12 11 11 11 11 11 11 11 11 10 10 10 10 9 10 10 9 9 9 9 9
14 14 14 14 14 14 14 14 13 13 13 13 13 13 12 12 12 12 12 12 12 11 11 11 10 10 10 10 10 10 9 9 9 9 9 9 9 9 8 8 8 8 8
13 13 13 13 13 13 13 13 12 12 13 12 12 12 12 12 11 11 11 11 11 11 10 10 10 9 9 9 9 9 9 9 8 9 9 9 8 8 8 8 8 7 7
12 12 12 12 12 12 12 12 12 12 12 12 12 11 11 11 11 11 11 11 10 10 10 10 9 9 9 8 8 8 8 8 8 8 8 8 8 8 7 7 7 7 6
11 11 11 11 11 11 11 11 11 12 12 12 12 11 11 11 11 11 10 10 10 9 9 9 9 8 8 8 8 7 7 7 7 7 7 7 7 6 6 6 6 5 5

GEFSMW_850_meantemp_120.txt.gz
Temperature
20 20 20 20 19 19 19 18 18 18 18 18 18 18 18 18 18 18 18 18 17 17 17 17 17 17 17 17 17 17 17 17 17 17 17 17 17 17 17 16 16 16 16
20 20 19 19 19 19 18 18 18 18 18 18 18 18 18 18 18 17 17 17 17 17 17 17 17 17 17 17 17 17 17 17 17 17 17 17 17 17 17 17 17 17 16
20 20 19 19 19 19 19 18 18 18 18 18 18 18 17 17 17 17 17 17 17 17 17 17 17 17 17 17 17 17 17 17 17 17 17 17 17 17 17 17 17 17 17
20 20 19 19 19 19 19 19 19 18 18 18 18 18 18 18 18 18 17 17 17 17 17 17 17 17 17 16 16 16 16 17 17 17 17 17 17 17 17 17 17 17 17
20 20 20 20 19 19 19 19 18 18 18 18 18 18 18 18 18 17 17 17 17 17 17 17 17 16 16 16 16 16 16 16 17 17 17 17 17 17 17 17 17 17 17
20 20 20 20 19 19 19 18 18 18 18 18 18 18 18 18 18 17 17 17 17 17 17 17 17 17 16 16 16 16 16 16 16 17 17 17 17 17 17 17 17 17 17
20 20 19 19 19 19 19 18 18 18 18 18 18 18 18 18 18 18 17 17 17 17 17 17 17 17 16 16 16 16 16 16 16 16 17 17 17 17 17 17 17 17 17
21 20 20 20 19 19 19 18 18 18 18 18 18 18 18 18 18 18 17 17 17 17 17 17 17 16 16 16 16 16 16 16 16 16 16 16 17 17 17 17 17 17 17
20 20 20 20 19 19 19 19 18 18 18 18 18 18 17 17 17 17 17 17 17 17 17 17 17 16 16 16 16 16 16 16 16 16 16 16 16 16 17 17 17 17 17
20 20 20 20 19 19 19 19 18 18 18 18 18 18 17 17 17 17 17 17 17 17 17 17 16 16 16 16 16 16 16 16 16 16 16 16 16 16 16 16 16 16 16
20 20 20 20 19 19 19 18 18 18 18 18 18 18 18 17 17 17 17 17 17 17 17 17 16 16 16 16 16 16 16 16 16 16 16 16 16 16 16 16 16 16 16
20 20 20 20 19 19 19 19 18 18 18 18 18 18 18 17 17 17 17 17 17 17 17 16 16 16 16 16 16 16 16 16 16 16 16 16 16 16 16 16 16 16 16
20 20 20 20 19 19 19 18 18 18 18 18 18 18 17 17 17 17 17 17 17 16 16 16 16 16 16 16 16 16 16 16 16 15 15 15 15 15 15 15 15 15 15
20 20 20 20 19 19 19 18 18 18 18 18 17 17 17 17 17 17 16 16 16 16 16 16 16 16 16 16 16 16 16 15 15 15 15 15 15 15 15 15 15 15 15
20 20 19 19 19 19 19 18 18 18 18 17 17 17 17 17 17 16 16 16 16 16 16 16 16 15 15 15 15 15 15 15 15 15 15 15 15 15 15 15 15 14 14
19 19 19 19 18 19 19 18 18 18 18 17 17 17 17 16 16 16 16 15 15 15 15 15 15 15 15 15 15 15 15 15 15 15 14 14 14 14 14 14 14 14 14
19 19 19 19 19 19 19 18 18 18 17 17 17 17 17 16 16 16 16 15 15 15 15 15 14 14 14 14 14 14 14 14 14 14 14 14 14 14 13 13 13 13 13
19 19 18 18 18 18 18 18 18 17 17 17 17 16 16 16 16 15 15 15 14 14 14 14 14 14 14 14 14 14 14 14 13 13 13 13 13 13 12 12 12 12 12
18 18 18 18 18 18 18 17 17 17 17 16 16 16 16 16 15 15 15 14 14 14 13 13 13 13 13 13 13 13 13 13 12 12 12 12 11 11 11 11 11 11 11
18 17 17 17 17 17 17 17 16 16 16 15 15 15 15 15 15 14 14 14 13 13 13 13 12 12 12 12 12 12 12 12 11 11 11 11 10 10 10 10 10 10 10
17 17 16 16 16 16 16 16 16 15 15 15 15 15 14 14 14 14 13 13 12 12 12 12 11 11 11 11 11 11 11 11 11 10 10 10 9 9 9 9 9 8 8
16 16 16 15 15 15 15 15 14 14 14 14 14 14 13 13 13 13 12 12 12 12 11 11 11 10 10 10 10 10 10 10 10 9 9 9 8 8 8 8 7 7 7
15 15 15 14 14 14 15 14 14 14 14 14 13 13 12 12 12 12 11 11 11 11 10 10 10 10 10 10 9 9 9 9 9 8 8 8 7 7 7 7 7 7 7
14 14 14 14 13 13 14 14 13 13 13 13 12 12 12 11 11 11 11 11 10 10 10 10 10 9 9 9 8 8 8 8 8 8 7 7 7 7 6 6 6 6 5
13 13 13 13 12 12 13 13 12 13 12 12 12 11 11 11 11 10 10 10 10 10 10 9 9 9 8 8 7 7 7 7 7 7 7 6 6 6 6 5 5 5 4
12 12 12 12 12 12 12 12 12 12 12 12 11 11 11 11 10 10 9 9 9 9 9 8 8 8 7 7 7 7 7 6 6 6 6 5 5 5 5 4 4 4 3

GEFSMW_850_meantemp_126.txt.gz
Temperature
19 19 19 19 18 18 18 18 18 18 17 17 17 17 17 17 17 17 17 17 17 17 16 16 16 16 16 16 16 16 16 16 16 16 16 16 16 16 16 16 16 16 16
19 19 19 19 18 18 18 18 18 17 17 17 17 17 17 17 17 17 17 17 17 17 16 16 16 16 16 16 16 16 16 16 16 16 16 16 16 16 16 16 16 16 16
19 19 19 18 18 18 18 18 18 18 17 17 17 17 17 17 17 17 17 17 17 17 16 16 16 16 16 16 16 16 16 16 16 16 16 16 16 16 16 16 16 16 16
19 19 19 19 18 18 18 18 18 18 17 17 17 17 17 17 17 17 17 17 17 16 16 16 16 16 16 16 16 16 16 16 16 16 16 16 16 16 16 17 17 17 17
19 19 19 19 19 18 18 18 18 18 17 17 17 17 17 17 17 17 17 17 17 17 16 16 16 16 16 16 16 16 16 16 16 16 16 16 16 16 16 17 17 17 17
19 19 19 19 18 18 18 18 18 18 17 17 17 17 17 17 17 17 17 17 17 17 16 16 16 16 16 16 16 16 16 16 16 16 16 16 16 16 17 17 17 17 17
19 19 19 18 18 18 18 18 18 18 17 17 17 17 17 17 17 17 17 17 17 17 17 16 16 16 16 16 16 16 16 16 16 16 16 16 16 16 16 16 17 17 17
19 19 19 19 19 18 18 18 18 18 17 17 17 17 17 17 17 17 17 17 17 17 17 16 16 16 16 16 16 16 16 16 16 16 16 16 16 16 16 16 16 16 16
19 20 19 19 19 19 18 18 18 18 17 17 17 17 17 17 17 17 17 17 17 17 16 16 16 16 16 16 16 16 15 15 15 15 16 16 16 16 16 16 16 16 16
20 20 20 19 19 19 18 18 18 18 18 17 17 17 17 17 17 17 17 17 17 17 17 16 16 16 16 16 15 15 15 15 15 15 15 15 15 15 16 16 16 16 16
20 20 20 19 19 18 18 18 18 17 17 17 17 17 17 17 17 17 17 17 17 17 16 16 16 16 16 15 15 15 15 15 15 15 15 15 15 15 15 15 15 15 15
20 20 20 19 19 18 18 18 18 18 17 17 17 17 17 17 17 17 17 17 16 16 16 16 16 16 16 15 15 15 15 15 15 15 15 15 15 15 15 15 15 15 15
19 19 19 19 19 19 18 18 18 18 17 17 17 17 17 17 17 17 17 16 16 16 16 16 16 16 16 15 15 15 15 15 15 15 15 15 15 15 15 15 15 15 14
19 19 19 19 19 19 18 18 18 17 17 17 17 17 17 17 17 17 16 16 16 16 16 16 15 15 15 15 15 15 15 15 15 15 15 15 14 14 14 14 14 14 14
19 19 19 19 19 18 18 18 18 17 17 17 17 17 17 17 16 16 16 16 16 16 15 15 15 15 15 15 15 15 15 14 14 14 14 14 14 14 14 14 14 14 14
18 18 19 19 19 18 18 18 18 17 17 17 17 17 16 16 16 16 16 16 15 15 15 15 15 14 14 14 14 14 14 14 14 14 14 14 14 14 13 13 13 13 13
18 18 18 18 18 18 18 18 18 17 17 17 16 16 16 16 16 16 15 15 15 15 15 14 14 14 14 14 14 14 14 14 13 13 13 13 13 13 13 12 12 12 12
18 18 18 18 18 18 18 17 17 17 17 16 16 16 16 16 15 15 15 15 14 14 14 14 14 14 13 13 13 13 13 13 13 12 12 12 12 12 12 11 11 11 11
18 18 18 18 18 18 17 17 17 17 16 16 16 15 15 15 15 14 14 14 14 13 13 13 13 13 12 12 12 12 12 12 12 11 11 11 11 11 11 11 10 10 10
17 17 17 17 17 17 17 17 16 16 16 15 15 15 15 15 14 14 14 13 13 13 12 12 12 12 12 11 11 11 11 11 11 11 10 10 10 10 9 9 9 9 8
17 17 17 17 17 16 16 16 16 16 15 15 15 14 14 14 14 13 13 13 12 12 12 11 11 11 11 11 11 11 11 10 10 10 9 9 8 8 8 8 8 7 7
16 16 16 16 16 16 16 16 15 15 14 14 14 13 13 13 13 13 12 12 12 11 11 11 11 10 10 10 10 9 9 9 9 9 8 8 7 7 7 7 7 6 6
15 15 15 15 15 15 15 15 14 14 14 13 13 13 13 12 12 12 11 11 11 11 10 10 10 9 9 9 8 8 8 8 8 7 7 7 7 6 6 6 6 6 5
14 14 14 14 14 14 14 14 13 13 13 13 12 12 12 11 11 11 11 10 10 10 10 9 9 8 8 8 8 7 7 7 7 7 6 6 6 6 5 5 5 5 4
13 13 13 13 13 13 13 13 13 13 12 12 11 11 11 11 10 10 10 9 9 9 9 9 8 8 8 7 7 7 6 6 6 6 6 5 5 5 4 4 4 4 3
13 13 13 12 12 12 12 12 12 12 12 11 11 11 10 10 10 9 9 8 8 8 8 8 8 7 7 6 6 6 6 5 5 5 5 5 4 4 3 3 3 3 2

GEFSMW_850_meantemp_132.txt.gz
Temperature
20 19 18 18 18 18 17 17 17 17 17 17 17 17 17 17 17 17 17 17 17 17 17 17 16 16 17 16 16 16 16 17 16 17 17 17 17 17 17 17 17 17 16
20 19 18 18 18 18 18 18 18 18 17 17 17 17 17 17 17 17 17 17 17 17 17 17 17 17 16 16 16 16 17 17 17 17 18 18 18 17 17 17 17 17 17
20 19 18 18 18 17 18 18 18 18 17 17 17 17 17 17 17 17 17 17 17 17 16 16 17 16 16 16 16 16 16 17 17 17 17 18 19 18 18 17 17 16 17
21 19 18 18 18 18 18 18 17 18 17 17 17 17 17 17 17 17 17 17 17 17 17 16 16 16 16 16 16 16 16 16 17 17 17 17 17 18 18 18 17 17 17
21 20 19 18 18 18 17 17 17 17 17 17 17 17 17 17 17 17 17 17 17 17 16 16 16 16 16 16 16 16 16 16 17 17 17 17 17 17 18 18 18 18 17
21 20 19 18 18 18 18 17 17 17 17 17 17 17 17 17 17 17 17 17 17 17 16 16 16 16 16 16 16 16 16 16 16 17 17 17 17 18 18 18 18 18 18
21 20 19 18 18 18 18 17 17 17 17 17 17 17 17 17 17 17 17 17 17 17 16 16 16 16 16 16 16 16 16 16 16 16 16 17 17 17 18 18 18 18 18
22 21 20 19 18 18 18 17 17 17 17 17 17 17 17 17 17 17 17 17 17 17 16 16 16 16 16 16 16 16 16 16 16 16 16 16 17 17 17 17 18 18 18
22 21 20 19 18 18 18 17 17 17 17 17 17 17 17 17 17 17 17 17 17 17 16 16 16 16 16 16 16 16 15 16 16 16 16 16 16 16 16 17 17 17 18
22 21 20 19 18 18 18 17 17 17 17 17 17 17 17 17 17 17 17 16 16 16 16 16 16 16 16 16 16 15 15 15 15 16 15 16 16 16 16 16 16 16 17
22 21 20 19 19 18 18 18 17 17 17 17 17 17 17 17 17 17 16 16 16 16 16 16 16 16 16 16 16 15 15 15 15 15 15 15 15 15 16 16 16 16 16
22 21 20 19 19 18 18 18 17 17 17 17 17 17 17 17 17 17 16 16 16 16 16 16 16 16 16 16 16 15 15 15 15 15 15 15 15 15 15 15 15 15 15
22 21 20 19 18 18 18 18 17 17 17 17 17 17 17 17 17 16 16 16 16 16 16 16 16 16 16 16 15 15 15 15 15 15 15 15 15 15 15 15 15 15 15
21 20 19 19 18 18 18 17 17 17 17 17 17 17 17 17 17 17 16 16 16 16 16 16 16 16 16 15 15 15 15 15 15 14 14 14 14 14 14 14 14 14 14
21 20 19 18 18 18 17 17 17 17 17 16 16 16 16 16 16 16 16 16 16 16 16 16 15 15 15 15 15 15 14 14 14 14 14 14 14 14 14 14 14 14 14
20 20 19 18 18 17 17 17 17 17 16 16 16 16 16 16 16 16 16 16 15 15 15 15 15 15 15 15 15 14 14 14 14 14 13 13 13 13 13 13 13 13 13
20 19 18 18 17 17 17 17 17 16 16 16 16 16 16 16 16 16 15 15 15 15 15 15 14 14 14 14 14 14 14 13 13 13 12 12 12 12 12 12 12 12 12
18 18 18 17 17 17 17 16 16 16 16 16 16 16 16 15 15 15 15 15 15 14 14 14 14 14 13 13 13 13 13 13 12 12 12 11 11 11 11 11 11 11 11
18 17 17 17 17 17 16 16 16 16 15 15 15 15 15 15 15 15 15 14 14 14 13 13 13 13 13 12 12 12 12 12 11 11 11 10 10 10 10 10 10 9 9
17 17 17 17 16 16 16 16 16 15 15 15 15 15 15 15 15 14 14 14 13 13 13 12 12 12 12 11 11 11 11 11 10 10 9 9 9 9 9 9 8 8 8
16 16 16 16 16 16 16 15 15 15 15 15 14 14 14 14 14 13 13 13 13 12 12 11 11 11 11 11 10 10 10 9 9 9 8 8 8 8 8 8 8 8 7
16 16 15 15 15 15 15 15 15 14 14 14 14 13 13 13 13 13 12 12 12 11 11 11 10 10 10 10 9 9 9 9 8 8 8 7 7 7 7 7 7 7 6
15 15 15 15 15 14 15 14 14 14 13 13 13 13 13 12 12 12 11 11 11 11 10 10 9 9 8 8 8 8 8 8 8 7 7 7 7 6 6 6 6 6 6
14 14 14 14 14 14 14 14 13 13 13 13 12 12 11 11 11 11 10 10 10 10 9 9 8 8 8 7 7 7 7 7 7 6 6 6 6 5 5 5 5 5 5
13 13 13 13 13 13 13 13 13 13 12 12 11 11 11 10 10 10 9 9 9 9 9 8 8 8 7 7 7 7 6 6 6 6 6 6 6 5 5 5 4 4 4
13 13 13 12 12 12 12 12 12 12 12 11 11 10 10 10 9 9 9 8 8 8 8 8 7 7 7 7 6 6 6 6 6 6 6 6 5 5 5 5 5 4 4

GEFSMW_850_meantemp_138.txt.gz
Temperature
23 22 21 20 19 19 18 18 18 18 18 18 18 18 18 18 18 18 18 18 17 18 18 18 18 18 18 18 17 18 18 18 18 18 18 18 18 18 18 18 17 17 17
23 22 21 20 19 19 18 18 18 18 18 18 18 18 18 18 18 18 17 17 17 18 18 18 18 18 18 17 17 17 17 18 18 18 18 18 18 18 18 18 18 18 17
23 21 20 20 19 19 18 18 18 18 18 18 18 18 17 17 18 17 17 17 17 17 18 18 18 18 18 17 17 17 18 18 18 18 18 18 18 18 18 18 18 18 17
23 22 20 20 19 19 18 18 18 18 18 18 18 18 18 18 18 18 18 17 17 17 17 17 17 17 17 17 17 17 17 18 18 18 18 18 18 18 18 18 18 18 18
24 22 21 20 19 19 18 18 18 18 18 18 18 18 18 18 18 17 17 17 17 17 17 17 17 17 17 17 17 17 17 17 18 18 18 18 18 18 18 18 18 18 18
24 22 21 20 20 19 19 18 18 18 18 18 18 18 18 18 18 17 17 17 18 18 17 17 17 17 17 17 17 17 17 17 17 18 18 18 18 18 18 18 18 18 18
24 23 22 20 20 19 19 18 18 18 18 18 18 18 18 18 18 18 17 17 17 17 17 17 17 17 17 17 17 17 17 17 17 17 18 18 18 18 18 18 18 18 18
24 23 22 21 20 19 19 18 18 18 18 18 18 18 18 18 17 18 18 18 18 18 17 17 17 17 17 17 17 17 17 17 17 17 17 17 18 18 18 18 18 18 18
24 23 22 21 20 19 19 19 18 18 18 18 18 18 18 18 17 18 18 18 18 18 18 17 17 17 17 17 17 17 16 17 17 17 17 17 17 17 18 18 18 18 18
25 24 22 21 20 20 19 19 18 18 18 18 18 18 18 18 18 18 18 18 18 18 17 17 17 17 17 17 17 17 17 16 16 17 17 17 17 17 17 17 17 17 17
25 24 23 22 21 20 19 19 18 18 18 18 18 18 18 18 18 18 17 17 17 17 17 17 17 17 17 17 17 17 16 16 16 16 16 16 16 17 17 17 17 17 17
25 24 23 22 21 20 19 19 18 18 18 18 18 18 18 17 18 17 17 17 17 17 17 17 17 17 17 17 17 17 16 16 16 16 16 16 16 16 16 16 16 16 16
25 24 23 22 21 20 20 19 19 18 18 18 18 17 17 17 17 17 17 17 17 17 17 17 17 17 16 16 16 16 16 16 16 16 16 16 16 16 16 16 16 16 16
24 24 23 22 21 20 20 19 19 18 18 18 18 17 17 17 17 17 17 17 17 17 16 16 16 16 16 16 16 16 16 16 16 15 15 15 15 15 15 15 15 15 15
24 23 22 21 21 20 20 19 19 18 18 18 17 17 17 17 17 17 16 16 16 16 16 16 16 16 16 16 16 16 15 15 15 15 15 14 14 14 14 14 14 14 14
24 23 22 21 20 20 19 19 18 18 18 17 17 17 17 17 16 16 16 16 16 16 16 16 16 16 15 15 15 15 15 15 14 14 14 14 14 14 14 14 13 13 13
23 22 21 21 20 19 19 18 18 18 17 17 17 17 16 16 16 16 16 16 15 15 15 15 15 15 15 15 15 14 14 14 14 13 13 13 13 13 13 13 13 12 12
22 21 21 20 19 19 18 18 18 17 17 17 16 16 16 16 15 15 15 15 15 15 15 15 14 14 14 14 14 14 14 13 13 13 12 12 12 12 12 12 12 11 11
21 20 20 20 19 18 18 18 18 17 17 16 16 16 16 15 15 15 15 15 14 14 14 14 14 13 13 13 13 13 13 13 12 12 12 11 11 11 11 11 10 10 10
20 19 19 19 18 18 18 17 17 16 16 16 16 15 15 15 15 15 14 14 14 14 13 13 13 13 12 12 12 12 12 12 11 11 11 11 10 10 10 10 10 9 9
19 19 18 18 18 17 17 17 16 16 16 15 15 15 15 15 14 14 14 14 13 13 13 12 12 12 12 11 11 11 11 11 10 10 10 10 9 9 9 9 9 8 8
18 18 18 17 17 17 17 16 16 15 15 15 15 14 14 14 14 14 13 13 13 12 12 12 11 11 10 10 10 10 10 10 10 9 9 9 9 9 8 8 8 8 8
17 17 17 16 16 16 16 16 15 15 15 14 14 14 13 13 13 13 12 12 12 11 11 11 10 10 10 9 9 9 9 9 9 9 8 8 8 8 8 7 7 7 7
17 16 16 16 15 15 15 15 15 14 14 14 13 13 13 12 12 12 11 11 11 11 10 10 9 9 9 9 8 8 8 8 8 8 8 8 8 7 7 7 7 7 6
16 15 15 15 14 14 14 14 14 14 13 13 12 12 12 12 11 11 11 11 11 10 10 10 9 9 8 8 8 8 8 8 8 8 7 7 7 7 7 7 6 6 6
15 14 14 14 13 13 13 13 13 13 13 12 12 11 11 11 10 10 10 9 9 9 9 9 9 8 8 8 7 7 7 7 7 7 7 7 7 7 7 6 6 6 5

GEFSMW_850_meantemp_144.txt.gz
Temperature
22 22 21 21 20 20 19 19 19 19 18 18 18 18 18 18 18 18 18 18 18 18 18 18 17 17 17 17 17 17 17 17 17 17 17 17 17 17 17 17 17 17 17
21 21 21 20 20 20 19 19 19 19 19 19 18 18 18 18 18 18 18 18 18 18 18 18 18 17 17 17 17 17 17 17 17 17 17 17 17 17 17 17 17 17 17
21 20 20 20 20 19 19 19 19 19 18 18 18 18 18 18 18 18 18 17 18 18 18 18 17 17 17 17 17 17 17 17 17 17 17 17 17 17 17 17 17 17 17
21 21 20 20 20 19 19 19 19 18 18 18 18 18 18 18 18 18 18 17 17 17 17 17 17 17 17 17 17 17 17 17 17 17 17 18 18 18 18 18 18 17 17
21 21 20 20 20 19 19 19 19 18 18 18 18 18 18 18 18 18 17 17 17 17 17 17 17 17 17 17 17 17 17 17 17 17 17 17 17 18 18 18 18 18 18
21 21 20 20 20 19 19 19 19 18 18 18 18 18 18 18 18 17 17 17 17 17 17 17 17 17 17 17 17 17 17 17 17 17 17 17 17 18 18 18 18 18 18
21 20 20 20 19 19 19 19 18 18 18 18 18 18 18 18 18 18 18 18 17 17 17 17 17 17 17 17 17 17 17 17 17 17 17 17 17 17 17 18 18 18 18
21 21 20 20 20 19 19 19 18 18 18 18 18 18 18 18 18 18 18 18 18 18 17 17 17 17 17 17 17 17 17 17 17 17 17 17 17 17 17 17 17 17 17
21 21 21 20 20 19 19 19 18 18 18 18 18 18 18 18 18 17 17 17 17 17 17 17 17 17 17 17 17 17 17 17 17 17 17 17 17 17 17 17 17 17 17
21 21 21 20 20 19 19 19 18 18 18 18 18 18 18 18 17 17 17 17 17 17 17 17 17 17 17 17 17 17 17 17 16 16 16 17 17 17 17 17 17 17 17
21 21 21 20 20 19 19 19 18 18 18 18 18 18 17 17 17 17 17 17 17 17 17 17 17 17 17 17 17 16 16 16 16 16 16 16 16 16 16 16 16 16 16
21 21 21 20 20 19 19 19 18 18 18 18 18 17 17 17 17 17 17 17 17 17 17 17 17 17 16 16 16 16 16 16 16 16 16 16 16 16 16 16 16 16 16
21 21 21 20 20 19 19 19 18 18 18 18 18 17 17 17 17 17 17 17 17 17 17 16 16 16 16 16 16 16 16 16 16 16 16 16 16 15 15 15 15 15 15
21 21 20 20 20 19 19 19 18 18 18 18 17 17 17 17 17 17 17 17 17 16 16 16 16 16 16 16 16 16 16 16 15 15 15 15 15 15 15 15 15 15 15
21 21 21 20 20 19 19 19 18 18 18 18 17 17 17 17 17 17 16 16 16 16 16 16 16 16 16 16 16 15 15 15 15 15 14 14 14 14 14 14 14 14 14
20 21 20 20 20 19 19 19 18 18 18 17 17 17 17 17 16 16 16 16 16 16 15 15 15 15 15 15 15 15 15 15 14 14 14 14 14 14 13 13 13 13 13
20 20 20 20 20 20 19 19 18 18 17 17 17 17 16 16 16 16 16 16 15 15 15 15 15 15 15 15 14 14 14 14 14 14 14 13 13 13 13 12 12 12 12
20 20 20 20 19 19 19 18 18 18 17 17 16 16 16 16 16 15 15 15 15 15 15 15 14 14 14 14 14 14 13 13 13 13 13 12 12 12 12 12 11 11 11
21 21 20 20 19 19 18 18 18 17 17 16 16 16 16 16 15 15 15 15 15 14 14 14 14 14 13 13 13 13 13 13 12 12 12 12 11 11 11 11 11 10 10
20 20 19 19 19 18 18 18 17 17 16 16 16 16 15 15 15 15 15 14 14 14 14 14 13 13 13 12 12 12 12 12 12 11 11 11 10 10 10 10 10 9 9
20 19 19 18 18 18 17 17 17 16 16 16 16 15 15 15 15 14 14 14 14 13 13 13 12 12 12 12 11 11 11 11 11 11 10 10 10 9 9 9 9 8 8
19 19 18 18 17 17 17 17 16 16 15 15 15 15 14 14 14 14 13 13 13 13 12 12 11 11 11 11 11 11 10 10 10 10 9 9 9 8 8 8 8 8 8
18 18 18 17 16 16 16 16 16 15 15 15 14 14 14 14 13 13 13 12 12 12 12 11 11 10 10 10 10 10 10 9 9 9 8 8 8 8 8 7 7 7 7
17 17 17 16 16 15 15 15 15 15 14 14 14 13 13 13 12 12 12 12 11 11 11 11 10 10 9 9 9 9 9 8 8 8 8 7 7 7 7 7 7 6 6
16 16 16 16 15 15 14 14 14 14 14 14 13 13 12 12 12 11 11 11 11 11 11 10 10 10 9 9 8 8 8 8 8 7 7 7 7 7 6 6 6 6 6
15 15 15 15 14 14 14 14 13 13 13 13 12 12 12 11 11 11 10 10 10 10 9 9 9 9 8 8 8 8 7 7 7 7 7 7 6 6 6 6 5 5 5

GEFSMW_850_meantemp_150.txt.gz
Temperature
21 20 20 20 19 19 19 18 18 18 18 17 17 17 17 17 17 17 17 17 17 17 17 17 17 17 17 17 17 17 17 17 17 17 17 17 17 17 17 17 17 17 16
20 20 20 20 19 19 19 18 18 18 18 18 18 18 18 17 17 17 17 17 17 17 17 17 17 17 17 17 17 17 17 17 17 17 17 17 17 17 17 17 17 17 17
20 20 20 20 19 19 19 19 18 18 18 18 18 17 17 17 17 17 17 17 17 17 17 17 17 17 17 17 17 17 17 17 17 17 17 17 17 17 17 17 17 17 17
20 20 20 20 20 19 19 18 18 18 18 18 18 18 17 17 18 18 17 17 17 17 17 17 17 17 17 17 17 17 17 17 17 17 17 17 17 17 17 17 17 17 17
20 20 20 20 19 19 19 18 18 18 18 18 18 18 18 18 17 17 17 17 17 17 17 17 17 17 17 17 17 17 17 17 17 17 17 17 17 17 17 17 17 17 17
20 20 20 20 19 19 18 18 18 18 18 18 18 18 18 18 17 17 17 17 17 17 17 17 17 17 17 17 17 17 17 17 17 17 17 17 17 17 17 17 17 17 17
20 20 20 19 19 19 18 18 18 18 18 18 17 17 17 17 17 17 17 17 17 17 17 17 17 17 17 17 17 17 17 17 17 17 17 17 17 17 17 17 17 17 17
20 20 20 20 19 19 19 18 18 18 18 18 17 17 17 17 17 17 17 17 17 17 17 17 17 17 17 17 17 16 16 16 17 17 17 17 17 17 17 17 17 17 17
20 20 20 20 19 19 19 18 18 18 18 18 17 17 17 17 17 17 17 17 17 17 17 17 17 17 17 16 16 16 16 16 16 16 16 16 16 16 16 16 16 16 16
20 20 20 20 19 19 19 18 18 18 18 18 17 17 17 17 17 17 17 17 17 17 17 17 17 17 17 16 16 16 16 16 16 16 16 16 16 16 16 16 16 16 16
21 21 20 20 19 19 19 18 18 18 18 18 18 17 17 17 17 17 17 17 17 17 17 17 16 16 16 16 16 16 16 16 16 16 16 16 16 16 16 16 16 16 16
21 21 20 20 19 19 19 18 18 18 18 18 17 17 17 17 17 17 17 17 17 16 16 16 16 16 16 16 16 16 16 16 16 16 16 16 16 15 15 15 15 15 15
21 21 20 20 20 19 19 19 18 18 18 18 17 17 17 17 17 17 17 17 16 16 16 16 16 16 16 16 16 16 16 16 15 15 15 15 15 15 15 15 15 15 15
21 21 20 20 20 19 19 18 18 18 18 18 17 17 17 17 17 17 17 16 16 16 16 16 16 16 16 16 16 16 15 15 15 15 15 15 15 15 15 14 14 14 14
20 21 20 20 20 19 19 19 18 18 18 18 17 17 17 17 17 16 16 16 16 16 16 16 16 15 15 15 15 15 15 15 15 15 15 14 14 14 14 14 14 13 13
21 21 20 20 20 20 19 19 18 18 18 18 17 17 17 16 16 16 16 16 16 16 15 15 15 15 15 15 15 15 15 15 14 14 14 14 14 14 13 13 13 13 13
21 21 21 21 20 20 20 19 18 18 18 17 17 17 16 16 16 16 16 15 15 15 15 15 15 15 15 15 15 14 14 14 14 14 13 13 13 13 13 12 12 12 12
21 21 21 20 20 19 19 19 18 18 17 17 17 16 16 16 15 15 15 15 15 15 15 15 14 14 14 14 14 14 14 13 13 13 13 13 12 12 12 12 11 11 11
21 20 20 20 20 19 19 18 18 17 17 17 16 16 16 15 15 15 15 15 15 15 14 14 14 14 14 13 13 13 13 13 12 12 12 12 11 11 11 11 11 10 10
20 20 20 19 19 18 18 18 17 17 17 16 16 16 15 15 15 15 14 14 14 14 14 14 13 13 13 13 13 12 12 12 12 11 11 11 10 10 10 10 10 10 9
19 19 19 19 19 18 18 17 17 17 16 16 15 15 15 14 14 14 14 14 14 13 13 13 13 12 12 12 12 11 12 11 11 11 10 10 9 9 9 9 9 9 8
19 19 19 18 18 18 17 17 17 16 16 15 15 15 14 14 14 14 13 13 13 13 13 12 12 11 11 11 11 11 11 10 10 10 9 9 9 9 9 8 8 8 8
18 18 18 17 17 17 17 17 16 15 15 15 15 14 14 14 13 13 13 13 12 12 12 11 11 11 10 10 10 10 10 10 9 9 9 8 8 8 8 7 7 7 7
17 17 17 17 16 16 16 16 15 15 15 14 14 14 13 13 13 12 12 12 12 11 11 11 10 10 10 10 10 9 9 9 8 8 8 8 7 7 7 7 6 6 6
16 16 16 16 15 15 15 15 15 14 14 14 13 13 13 12 12 11 11 11 11 11 10 10 10 10 9 9 9 9 8 8 8 8 7 7 7 7 6 6 6 6 5
15 15 15 15 15 14 14 14 14 14 13 13 13 12 12 12 11 11 10 10 10 9 9 9 9 9 9 8 8 8 7 7 7 7 7 7 6 6 6 6 5 5 5

GEFSMW_850_meantemp_156.txt.gz
Temperature
21 20 19 19 19 19 18 18 18 18 18 17 17 17 17 17 17 17 17 17 17 17 17 17 17 17 17 17 17 17 17 17 17 17 17 17 17 17 17 17 17 17 16
21 19 19 19 19 18 18 18 18 18 18 18 18 18 18 17 17 17 17 17 17 17 17 17 17 17 17 17 17 17 17 17 17 17 18 18 18 17 18 17 17 17 17
21 20 19 19 18 18 18 18 18 18 18 18 17 17 17 17 17 17 17 17 17 17 17 17 17 17 17 17 17 17 17 17 17 17 18 18 19 19 18 17 17 17 17
22 20 19 19 18 18 18 18 18 18 18 18 17 17 17 17 17 17 17 17 17 17 17 17 17 17 17 17 17 17 17 17 17 17 17 17 18 18 18 18 18 17 17
22 20 19 19 19 18 18 18 18 18 18 17 17 17 17 17 17 17 17 17 17 17 17 17 17 17 17 17 17 17 17 17 17 17 17 17 17 17 18 18 18 18 18
21 20 19 19 19 18 18 18 18 18 17 18 17 17 17 17 17 17 17 17 17 17 17 17 17 17 17 17 17 17 17 17 17 17 17 17 17 18 18 18 18 18 18
22 20 20 19 19 18 18 18 18 18 17 17 17 17 17 17 17 17 17 17 17 17 17 17 17 17 17 17 17 17 17 17 17 17 17 17 17 17 18 18 18 18 18
22 21 20 19 19 18 18 18 18 18 18 18 18 17 17 17 17 17 17 17 17 17 17 17 17 17 17 17 17 17 17 17 17 17 17 17 17 17 17 17 18 18 18
22 21 20 19 19 19 18 18 18 18 18 18 18 18 17 17 17 17 17 17 17 17 17 17 17 17 17 17 17 16 17 16 16 17 17 17 17 17 17 17 17 17 17
22 21 21 20 19 19 18 18 18 18 18 18 17 17 17 17 17 17 17 17 17 17 17 17 17 17 17 16 17 16 16 16 16 16 16 16 16 16 16 16 17 17 16
23 22 21 20 20 19 19 18 18 18 18 18 18 17 17 17 17 17 17 17 17 17 17 17 17 17 17 16 16 16 16 16 16 16 16 16 16 16 16 16 16 16 16
23 22 21 20 20 19 19 18 18 18 18 18 18 18 17 17 17 17 17 17 17 17 17 17 16 16 16 16 16 16 16 16 16 16 16 15 15 15 15 15 15 15 15
22 22 21 20 20 19 19 19 18 18 18 18 18 17 17 17 17 17 17 17 17 17 16 16 16 16 16 16 16 16 16 16 15 15 15 15 15 15 15 15 15 15 15
22 21 21 20 19 19 19 18 18 18 18 17 17 17 17 17 17 17 17 17 17 16 16 16 16 16 16 16 16 15 15 15 15 15 15 15 15 14 14 14 14 14 14
22 21 20 20 19 19 18 18 18 18 18 17 17 17 17 17 17 16 16 16 16 16 16 16 16 15 15 15 15 15 15 15 15 15 15 14 14 14 14 14 14 14 13
22 21 20 20 19 19 18 18 18 18 18 17 17 17 17 16 16 16 16 16 16 16 15 15 15 15 15 15 15 15 15 14 14 14 14 14 14 14 14 14 13 13 13
22 21 20 19 19 19 19 18 18 18 18 17 17 17 16 16 16 16 16 16 16 15 15 15 15 15 15 15 15 14 14 14 14 14 13 13 13 13 13 13 13 12 12
22 21 20 19 19 19 19 18 18 18 17 17 17 16 16 16 16 16 15 15 15 15 15 15 14 14 14 14 14 14 14 13 13 13 13 12 12 12 12 12 12 12 11
21 20 20 19 19 19 18 18 18 17 17 17 16 16 16 16 15 15 15 15 15 15 14 14 14 14 14 13 13 13 13 13 13 12 12 12 12 11 11 11 11 11 10
20 20 19 19 18 18 18 18 17 17 16 16 16 16 16 15 15 15 15 14 14 14 14 14 14 13 13 13 13 13 12 12 12 11 11 11 11 11 10 10 10 10 9
19 19 18 18 18 18 18 17 17 16 16 16 16 16 15 15 15 14 14 14 14 14 13 13 13 13 13 12 12 12 11 11 11 11 10 10 10 10 10 9 9 9 9
18 18 18 18 17 17 17 17 16 16 16 15 15 15 15 14 14 14 14 14 13 13 13 12 12 12 12 12 11 11 11 11 10 10 10 9 9 9 9 9 9 8 8
17 17 17 17 17 17 16 16 16 16 15 15 15 15 14 14 14 13 13 13 13 12 12 12 11 11 11 11 11 10 10 10 10 9 9 9 8 8 8 8 8 8 8
16 16 16 16 16 16 16 16 15 15 15 15 14 14 13 13 13 13 12 12 12 12 11 11 11 11 10 10 10 9 9 9 9 8 8 8 8 8 7 7 7 7 7
15 15 15 15 15 15 15 15 15 14 14 14 13 13 13 12 12 12 11 11 11 11 11 11 11 10 10 10 9 9 9 9 8 8 8 7 7 7 7 7 7 7 7
15 15 15 15 15 14 14 14 14 14 14 13 13 12 12 12 12 11 11 11 10 10 10 10 10 10 9 9 9 8 8 8 8 8 8 7 7 7 7 7 6 6 6